| time (UTC) | temp F | wind direction | speed MPH | gust MPH | rain 1hr in | rain 24hr in | rain mn in | humidity % | barometer mb |
| 20260904210053 | 72 | 235 | 3.0 | 12.0 | 0.00 | 0.00 | 0.00 | 100 | 953.5 |
| 20260904205850 | 72 | 239 | 3.0 | 14.0 | 0.00 | 0.00 | 0.00 | 100 | 953.5 |
| 20260904205647 | 72 | 234 | 3.0 | 14.0 | 0.00 | 0.00 | 0.00 | 100 | 953.5 |
| 20260904205546 | 73 | 233 | 3.0 | 14.0 | 0.00 | 0.00 | 0.00 | 100 | 953.4 |
| 20260904205444 | 73 | 231 | 3.0 | 10.0 | 0.00 | 0.00 | 0.00 | 100 | 953.5 |
| 20260904205241 | 73 | 237 | 2.0 | 10.0 | 0.00 | 0.00 | 0.00 | 100 | 953.4 |
| 20260904205038 | 72 | 235 | 2.0 | 11.0 | 0.00 | 0.00 | 0.00 | 100 | 953.5 |
| 20260904204938 | 72 | 227 | 2.0 | 11.0 | 0.00 | 0.00 | 0.00 | 100 | 953.6 |
| 20260904204835 | 73 | 220 | 2.0 | 8.0 | 0.00 | 0.00 | 0.00 | 100 | 953.5 |
| 20260904204631 | 73 | 228 | 3.0 | 13.0 | 0.00 | 0.00 | 0.00 | 100 | 953.5 |
| 20260904204428 | 73 | 230 | 3.0 | 13.0 | 0.00 | 0.00 | 0.00 | 100 | 953.4 |
| 20260904204328 | 73 | 229 | 3.0 | 11.0 | 0.00 | 0.00 | 0.00 | 100 | 953.5 |
| 20260904204225 | 73 | 221 | 2.0 | 11.0 | 0.00 | 0.00 | 0.00 | 100 | 953.6 |
| 20260904204022 | 73 | 225 | 3.0 | 11.0 | 0.00 | 0.00 | 0.00 | 100 | 953.5 |
| 20260904203818 | 73 | 230 | 4.0 | 17.0 | 0.00 | 0.00 | 0.00 | 100 | 953.5 |
| 20260904203718 | 73 | 229 | 4.0 | 17.0 | 0.00 | 0.00 | 0.00 | 100 | 953.5 |
| 20260904203616 | 73 | 231 | 4.0 | 17.0 | 0.00 | 0.00 | 0.00 | 100 | 953.5 |
| 20260904203412 | 73 | 233 | 3.0 | 12.0 | 0.00 | 0.00 | 0.00 | 100 | 953.6 |
| 20260904203209 | 73 | 242 | 2.0 | 11.0 | 0.00 | 0.00 | 0.00 | 100 | 953.6 |
| 20260904203108 | 73 | 236 | 2.0 | 13.0 | 0.00 | 0.00 | 0.00 | 100 | 953.6 |
| 20260904203005 | 73 | 234 | 3.0 | 13.0 | 0.00 | 0.00 | 0.00 | 100 | 953.6 |
| 20260904202802 | 73 | 237 | 3.0 | 15.0 | 0.00 | 0.00 | 0.00 | 100 | 953.6 |
| 20260904202600 | 73 | 242 | 4.0 | 15.0 | 0.00 | 0.00 | 0.00 | 100 | 953.5 |
| 20260904202458 | 73 | 242 | 3.0 | 14.0 | 0.00 | 0.00 | 0.00 | 100 | 953.6 |
| 20260904202356 | 73 | 241 | 4.0 | 14.0 | 0.00 | 0.00 | 0.00 | 100 | 953.6 |
| 20260904202153 | 73 | 235 | 3.0 | 11.0 | 0.00 | 0.00 | 0.00 | 100 | 953.6 |
| 20260904201950 | 73 | 227 | 2.0 | 9.0 | 0.00 | 0.00 | 0.00 | 100 | 953.5 |
| 20260904201849 | 73 | 232 | 3.0 | 14.0 | 0.00 | 0.00 | 0.00 | 100 | 953.5 |
| 20260904201747 | 72 | 242 | 3.0 | 14.0 | 0.00 | 0.00 | 0.00 | 100 | 953.7 |
| 20260904201544 | 72 | 245 | 4.0 | 14.0 | 0.00 | 0.00 | 0.00 | 100 | 953.6 |
| 20260904201341 | 72 | 235 | 3.0 | 9.0 | 0.00 | 0.00 | 0.00 | 100 | 953.6 |
| 20260904201240 | 72 | 236 | 2.0 | 12.0 | 0.00 | 0.00 | 0.00 | 100 | 953.6 |
| 20260904201138 | 72 | 237 | 2.0 | 12.0 | 0.00 | 0.00 | 0.00 | 100 | 953.8 |
| 20260904200935 | 73 | 221 | 2.0 | 12.0 | 0.00 | 0.00 | 0.00 | 100 | 953.8 |
| 20260904200732 | 72 | 218 | 2.0 | 8.0 | 0.00 | 0.00 | 0.00 | 100 | 953.8 |
| 20260904200529 | 72 | 222 | 2.0 | 9.0 | 0.00 | 0.00 | 0.00 | 100 | 953.7 |
| 20260904200326 | 72 | 225 | 2.0 | 9.0 | 0.00 | 0.00 | 0.00 | 100 | 953.8 |
| 20260904200123 | 72 | 237 | 2.0 | 7.0 | 0.00 | 0.00 | 0.00 | 100 | 953.8 |
| 20260904200022 | 72 | 238 | 2.0 | 5.0 | 0.00 | 0.00 | 0.00 | 100 | 954.0 |
| 20260904195920 | 72 | 224 | 2.0 | 10.0 | 0.00 | 0.00 | 0.00 | 100 | 953.9 |
| 20260904195717 | 72 | 220 | 3.0 | 10.0 | 0.00 | 0.00 | 0.00 | 100 | 954.0 |
| 20260904195514 | 72 | 211 | 2.0 | 10.0 | 0.00 | 0.00 | 0.00 | 100 | 954.1 |
| 20260904195414 | 72 | 221 | 2.0 | 9.0 | 0.00 | 0.00 | 0.00 | 100 | 954.1 |
| 20260904195312 | 72 | 233 | 2.0 | 8.0 | 0.00 | 0.00 | 0.00 | 100 | 954.1 |
| 20260904195109 | 72 | 242 | 2.0 | 9.0 | 0.00 | 0.00 | 0.00 | 100 | 954.2 |
| 20260904194906 | 72 | 217 | 2.0 | 9.0 | 0.00 | 0.00 | 0.00 | 100 | 954.1 |
| 20260904194804 | 72 | 218 | 2.0 | 9.0 | 0.00 | 0.00 | 0.00 | 100 | 954.4 |
| 20260904194702 | 72 | 218 | 2.0 | 9.0 | 0.00 | 0.00 | 0.00 | 100 | 954.1 |
| 20260904194459 | 72 | 234 | 3.0 | 12.0 | 0.00 | 0.00 | 0.00 | 100 | 954.2 |
| 20260904194256 | 72 | 246 | 3.0 | 14.0 | 0.00 | 0.00 | 0.00 | 100 | 954.3 |
| 20260904194155 | 72 | 247 | 4.0 | 14.0 | 0.00 | 0.00 | 0.00 | 100 | 954.2 |
| 20260904194052 | 72 | 242 | 3.0 | 14.0 | 0.00 | 0.00 | 0.00 | 100 | 954.2 |
| 20260904193849 | 72 | 253 | 4.0 | 13.0 | 0.00 | 0.00 | 0.00 | 100 | 954.3 |
| 20260904193647 | 72 | 253 | 4.0 | 13.0 | 0.00 | 0.00 | 0.00 | 100 | 954.2 |
| 20260904193546 | 72 | 250 | 3.0 | 13.0 | 0.00 | 0.00 | 0.00 | 100 | 954.2 |
| 20260904193443 | 72 | 230 | 2.0 | 7.0 | 0.00 | 0.00 | 0.00 | 100 | 954.2 |
| 20260904193240 | 72 | 218 | 2.0 | 6.0 | 0.00 | 0.00 | 0.00 | 100 | 954.3 |
| 20260904193036 | 72 | 222 | 2.0 | 14.0 | 0.00 | 0.00 | 0.00 | 100 | 954.2 |
| 20260904192833 | 72 | 228 | 3.0 | 14.0 | 0.00 | 0.00 | 0.00 | 100 | 954.1 |
| 20260904192630 | 72 | 219 | 3.0 | 12.0 | 0.00 | 0.00 | 0.00 | 100 | 954.0 |
| 20260904192426 | 72 | 221 | 3.0 | 12.0 | 0.00 | 0.00 | 0.00 | 100 | 954.1 |
| 20260904192326 | 72 | 224 | 2.0 | 12.0 | 0.00 | 0.00 | 0.00 | 100 | 954.2 |
| 20260904192223 | 72 | 224 | 2.0 | 11.0 | 0.00 | 0.00 | 0.00 | 100 | 954.1 |
| 20260904192020 | 72 | 226 | 2.0 | 9.0 | 0.00 | 0.00 | 0.00 | 100 | 954.1 |
| 20260904191817 | 72 | 252 | 2.0 | 6.0 | 0.00 | 0.00 | 0.00 | 100 | 954.2 |
| 20260904191716 | 72 | 250 | 2.0 | 6.0 | 0.00 | 0.00 | 0.00 | 100 | 954.2 |
| 20260904191613 | 72 | 242 | 2.0 | 11.0 | 0.00 | 0.00 | 0.00 | 100 | 954.2 |
| 20260904191411 | 72 | 225 | 3.0 | 11.0 | 0.00 | 0.00 | 0.00 | 100 | 954.3 |
| 20260904191207 | 72 | 227 | 2.0 | 11.0 | 0.00 | 0.00 | 0.00 | 100 | 954.3 |
| 20260904191004 | 72 | 221 | 2.0 | 10.0 | 0.00 | 0.00 | 0.00 | 100 | 954.4 |
| 20260904190802 | 72 | 220 | 2.0 | 10.0 | 0.00 | 0.00 | 0.00 | 100 | 954.3 |
| 20260904190558 | 72 | 235 | 2.0 | 10.0 | 0.00 | 0.00 | 0.00 | 100 | 954.3 |
| 20260904190458 | 72 | 234 | 2.0 | 10.0 | 0.00 | 0.00 | 0.00 | 100 | 954.3 |
| 20260904190355 | 72 | 230 | 2.0 | 8.0 | 0.00 | 0.00 | 0.00 | 100 | 954.3 |
| 20260904190152 | 72 | 220 | 3.0 | 10.0 | 0.00 | 0.00 | 0.00 | 100 | 954.4 |
| 20260904185949 | 72 | 242 | 3.0 | 10.0 | 0.00 | 0.00 | 0.00 | 100 | 954.3 |
| 20260904185848 | 72 | 244 | 3.0 | 16.0 | 0.00 | 0.00 | 0.00 | 100 | 954.3 |
| 20260904185745 | 72 | 243 | 3.0 | 16.0 | 0.00 | 0.00 | 0.00 | 100 | 954.4 |
| 20260904185542 | 72 | 244 | 4.0 | 16.0 | 0.00 | 0.00 | 0.00 | 100 | 954.3 |
| 20260904185340 | 73 | 241 | 3.0 | 16.0 | 0.00 | 0.00 | 0.00 | 100 | 954.2 |
| 20260904185239 | 73 | 234 | 3.0 | 16.0 | 0.00 | 0.00 | 0.00 | 100 | 954.2 |
| 20260904185136 | 72 | 215 | 2.0 | 6.0 | 0.00 | 0.00 | 0.00 | 100 | 954.3 |
| 20260904184933 | 72 | 240 | 2.0 | 8.0 | 0.00 | 0.00 | 0.00 | 100 | 954.3 |
| 20260904184730 | 72 | 234 | 3.0 | 8.0 | 0.00 | 0.00 | 0.00 | 100 | 954.4 |
| 20260904184527 | 72 | 209 | 2.0 | 7.0 | 0.00 | 0.00 | 0.00 | 100 | 954.4 |
| 20260904184323 | 72 | 240 | 2.0 | 10.0 | 0.00 | 0.00 | 0.00 | 100 | 954.4 |
| 20260904184120 | 72 | 247 | 3.0 | 10.0 | 0.00 | 0.00 | 0.00 | 100 | 954.3 |
| 20260904184019 | 72 | 247 | 3.0 | 10.0 | 0.00 | 0.00 | 0.00 | 100 | 954.3 |
| 20260904183825 | 72 | 238 | 4.0 | 17.0 | 0.00 | 0.00 | 0.00 | 100 | 954.4 |
| 20260904183623 | 72 | 233 | 3.0 | 17.0 | 0.00 | 0.00 | 0.00 | 100 | 954.4 |
| 20260904183523 | 72 | 235 | 3.0 | 17.0 | 0.00 | 0.00 | 0.00 | 100 | 954.3 |
| 20260904183420 | 72 | 225 | 2.0 | 11.0 | 0.00 | 0.00 | 0.00 | 100 | 954.3 |
| 20260904183217 | 72 | 241 | 2.0 | 11.0 | 0.00 | 0.00 | 0.00 | 100 | 954.3 |
| 20260904183013 | 72 | 250 | 4.0 | 11.0 | 0.00 | 0.00 | 0.00 | 100 | 954.2 |
| 20260904182913 | 72 | 248 | 4.0 | 11.0 | 0.00 | 0.00 | 0.00 | 100 | 954.3 |
| 20260904182810 | 72 | 251 | 4.0 | 11.0 | 0.00 | 0.00 | 0.00 | 100 | 954.3 |
| 20260904182606 | 72 | 237 | 3.0 | 10.0 | 0.00 | 0.00 | 0.00 | 100 | 954.2 |
| 20260904182403 | 72 | 226 | 2.0 | 6.0 | 0.00 | 0.00 | 0.00 | 100 | 954.2 |
| 20260904182249 | 72 | 244 | 2.0 | 6.0 | 0.00 | 0.00 | 0.00 | 100 | 954.3 |
| 20260904182147 | 72 | 247 | 2.0 | 8.0 | 0.00 | 0.00 | 0.00 | 100 | 954.2 |
| 20260904181943 | 72 | 242 | 2.0 | 8.0 | 0.00 | 0.00 | 0.00 | 100 | 954.1 |
| 20260904181740 | 72 | 215 | 2.0 | 8.0 | 0.00 | 0.00 | 0.00 | 100 | 954.2 |
| 20260904181639 | 72 | 226 | 2.0 | 8.0 | 0.00 | 0.00 | 0.00 | 100 | 954.1 |
| 20260904181536 | 72 | 235 | 2.0 | 8.0 | 0.00 | 0.00 | 0.00 | 100 | 954.1 |
| 20260904181333 | 72 | 233 | 2.0 | 8.0 | 0.00 | 0.00 | 0.00 | 100 | 954.0 |
| 20260904181130 | 72 | 218 | 2.0 | 8.0 | 0.00 | 0.00 | 0.00 | 100 | 954.0 |
| 20260904181029 | 72 | 232 | 2.0 | 7.0 | 0.00 | 0.00 | 0.00 | 100 | 954.1 |
| 20260904180927 | 72 | 238 | 2.0 | 11.0 | 0.00 | 0.00 | 0.00 | 100 | 954.0 |
| 20260904180724 | 72 | 232 | 2.0 | 11.0 | 0.00 | 0.00 | 0.00 | 100 | 954.1 |
| 20260904180520 | 72 | 220 | 3.0 | 11.0 | 0.00 | 0.00 | 0.00 | 100 | 954.0 |
| 20260904180419 | 72 | 220 | 2.0 | 9.0 | 0.00 | 0.00 | 0.00 | 100 | 954.0 |
| 20260904180317 | 72 | 217 | 2.0 | 9.0 | 0.00 | 0.00 | 0.00 | 100 | 953.8 |
| 20260904180114 | 72 | 216 | 2.0 | 10.0 | 0.00 | 0.00 | 0.00 | 100 | 953.9 |
| 20260904175911 | 72 | 221 | 2.0 | 10.0 | 0.00 | 0.00 | 0.00 | 100 | 953.8 |
| 20260904175708 | 72 | 223 | 2.0 | 7.0 | 0.00 | 0.00 | 0.00 | 100 | 953.8 |
| 20260904175504 | 72 | 225 | 2.0 | 9.0 | 0.00 | 0.00 | 0.00 | 100 | 953.8 |
| 20260904175301 | 72 | 220 | 2.0 | 9.0 | 0.00 | 0.00 | 0.00 | 100 | 953.7 |
| 20260904175200 | 72 | 221 | 2.0 | 9.0 | 0.00 | 0.00 | 0.00 | 100 | 953.8 |
| 20260904175058 | 72 | 232 | 2.0 | 10.0 | 0.00 | 0.00 | 0.00 | 100 | 953.8 |
| 20260904174855 | 72 | 218 | 2.0 | 10.0 | 0.00 | 0.00 | 0.00 | 100 | 953.8 |
| 20260904174652 | 72 | 211 | 2.0 | 8.0 | 0.00 | 0.00 | 0.00 | 100 | 953.7 |
| 20260904174551 | 72 | 215 | 2.0 | 7.0 | 0.00 | 0.00 | 0.00 | 100 | 953.8 |
| 20260904174448 | 72 | 227 | 2.0 | 8.0 | 0.00 | 0.00 | 0.00 | 100 | 953.7 |
| 20260904174245 | 72 | 235 | 2.0 | 8.0 | 0.00 | 0.00 | 0.00 | 100 | 953.6 |
| 20260904174042 | 72 | 234 | 3.0 | 14.0 | 0.00 | 0.00 | 0.00 | 100 | 953.6 |
| 20260904173839 | 72 | 230 | 3.0 | 14.0 | 0.00 | 0.00 | 0.00 | 100 | 953.5 |
| 20260904173636 | 72 | 222 | 3.0 | 13.0 | 0.00 | 0.00 | 0.00 | 100 | 953.6 |
| 20260904173433 | 72 | 217 | 2.0 | 12.0 | 0.00 | 0.00 | 0.00 | 100 | 953.5 |
| 20260904173332 | 72 | 211 | 2.0 | 11.0 | 0.00 | 0.00 | 0.00 | 100 | 953.5 |
| 20260904173230 | 72 | 215 | 2.0 | 13.0 | 0.00 | 0.00 | 0.00 | 100 | 953.5 |
| 20260904173027 | 72 | 221 | 2.0 | 13.0 | 0.00 | 0.00 | 0.00 | 100 | 953.4 |
| 20260904172824 | 72 | 217 | 2.0 | 13.0 | 0.00 | 0.00 | 0.00 | 100 | 953.5 |
| 20260904172621 | 72 | 206 | 2.0 | 12.0 | 0.00 | 0.00 | 0.00 | 100 | 953.5 |
| 20260904172418 | 72 | 209 | 2.0 | 10.0 | 0.00 | 0.00 | 0.00 | 100 | 953.6 |
| 20260904172215 | 72 | 219 | 2.0 | 10.0 | 0.00 | 0.00 | 0.00 | 100 | 953.5 |
| 20260904172114 | 72 | 222 | 2.0 | 10.0 | 0.00 | 0.00 | 0.00 | 100 | 953.6 |
| 20260904172012 | 72 | 227 | 2.0 | 7.0 | 0.00 | 0.00 | 0.00 | 100 | 953.6 |
| 20260904171809 | 72 | 218 | 2.0 | 7.0 | 0.00 | 0.00 | 0.00 | 100 | 953.6 |
| 20260904171606 | 72 | 213 | 2.0 | 7.0 | 0.00 | 0.00 | 0.00 | 100 | 953.7 |
| 20260904171505 | 72 | 218 | 1.0 | 5.0 | 0.00 | 0.00 | 0.00 | 100 | 953.7 |
| 20260904171402 | 72 | 222 | 2.0 | 7.0 | 0.00 | 0.00 | 0.00 | 100 | 953.7 |
| 20260904171158 | 72 | 206 | 3.0 | 11.0 | 0.00 | 0.00 | 0.00 | 100 | 953.6 |
| 20260904170955 | 72 | 197 | 3.0 | 11.0 | 0.00 | 0.00 | 0.00 | 100 | 953.6 |
| 20260904170855 | 72 | 195 | 4.0 | 16.0 | 0.00 | 0.00 | 0.00 | 100 | 953.6 |
| 20260904170753 | 72 | 199 | 3.0 | 16.0 | 0.00 | 0.00 | 0.00 | 100 | 953.6 |
| 20260904170550 | 72 | 196 | 2.0 | 16.0 | 0.00 | 0.00 | 0.00 | 100 | 953.7 |
| 20260904170346 | 72 | 219 | 3.0 | 10.0 | 0.00 | 0.00 | 0.00 | 100 | 953.7 |
| 20260904170245 | 72 | 218 | 3.0 | 10.0 | 0.00 | 0.00 | 0.00 | 100 | 953.7 |
| 20260904170143 | 72 | 214 | 3.0 | 10.0 | 0.00 | 0.00 | 0.00 | 100 | 953.7 |
| 20260904165940 | 72 | 179 | 2.0 | 7.0 | 0.00 | 0.00 | 0.00 | 100 | 953.8 |
| 20260904165736 | 72 | 164 | 2.0 | 5.0 | 0.00 | 0.00 | 0.00 | 100 | 953.7 |
| 20260904165636 | 72 | 180 | 2.0 | 6.0 | 0.00 | 0.00 | 0.00 | 100 | 953.7 |
| 20260904165534 | 72 | 199 | 1.0 | 6.0 | 0.00 | 0.00 | 0.00 | 100 | 953.7 |
| 20260904165331 | 72 | 203 | 2.0 | 6.0 | 0.00 | 0.00 | 0.00 | 100 | 953.8 |
| 20260904165127 | 72 | 222 | 2.0 | 6.0 | 0.00 | 0.00 | 0.00 | 100 | 953.7 |
| 20260904165026 | 72 | 206 | 2.0 | 7.0 | 0.00 | 0.00 | 0.00 | 100 | 953.7 |
| 20260904164924 | 72 | 200 | 2.0 | 7.0 | 0.00 | 0.00 | 0.00 | 100 | 953.8 |
| 20260904164721 | 72 | 182 | 2.0 | 8.0 | 0.00 | 0.00 | 0.00 | 100 | 953.7 |
| 20260904164518 | 72 | 171 | 3.0 | 13.0 | 0.00 | 0.00 | 0.00 | 100 | 953.7 |
| 20260904164417 | 72 | 168 | 3.0 | 13.0 | 0.00 | 0.00 | 0.00 | 100 | 953.7 |
| 20260904164314 | 72 | 172 | 3.0 | 13.0 | 0.00 | 0.00 | 0.00 | 100 | 953.6 |
| 20260904164110 | 72 | 194 | 2.0 | 5.0 | 0.00 | 0.00 | 0.00 | 100 | 953.8 |
| 20260904163908 | 72 | 189 | 1.0 | 3.0 | 0.00 | 0.00 | 0.00 | 100 | 953.7 |
| 20260904163807 | 72 | 194 | 1.0 | 3.0 | 0.00 | 0.00 | 0.00 | 100 | 953.7 |
| 20260904163705 | 72 | 182 | 1.0 | 6.0 | 0.00 | 0.00 | 0.00 | 100 | 953.8 |
| 20260904163502 | 72 | 194 | 1.0 | 6.0 | 0.00 | 0.00 | 0.00 | 100 | 953.8 |
| 20260904163259 | 72 | 177 | 2.0 | 8.0 | 0.00 | 0.00 | 0.00 | 100 | 953.9 |
| 20260904163158 | 72 | 173 | 2.0 | 8.0 | 0.00 | 0.00 | 0.00 | 100 | 953.8 |
| 20260904163055 | 72 | 158 | 3.0 | 8.0 | 0.00 | 0.00 | 0.00 | 100 | 953.9 |
| 20260904162852 | 72 | 172 | 2.0 | 7.0 | 0.00 | 0.00 | 0.00 | 100 | 954.0 |
| 20260904162648 | 72 | 186 | 2.0 | 7.0 | 0.00 | 0.00 | 0.00 | 100 | 954.1 |
| 20260904162548 | 72 | 192 | 1.0 | 7.0 | 0.00 | 0.00 | 0.00 | 100 | 954.1 |
| 20260904162445 | 72 | 189 | 2.0 | 7.0 | 0.00 | 0.00 | 0.00 | 100 | 954.2 |
| 20260904162243 | 72 | 178 | 2.0 | 6.0 | 0.00 | 0.00 | 0.00 | 100 | 954.2 |
| 20260904162040 | 72 | 175 | 2.0 | 6.0 | 0.00 | 0.00 | 0.00 | 100 | 954.3 |
| 20260904161939 | 72 | 0 | 1.0 | 6.0 | 0.00 | 0.00 | 0.00 | 100 | 954.3 |
| 20260904161837 | 72 | 211 | 1.0 | 6.0 | 0.00 | 0.00 | 0.00 | 100 | 954.3 |
| 20260904161634 | 72 | 205 | 1.0 | 6.0 | 0.00 | 0.00 | 0.00 | 100 | 954.5 |
| 20260904161430 | 72 | 182 | 1.0 | 6.0 | 0.00 | 0.00 | 0.00 | 100 | 954.5 |
| 20260904161330 | 72 | 177 | 2.0 | 7.0 | 0.00 | 0.00 | 0.00 | 100 | 954.4 |
| 20260904161227 | 72 | 169 | 3.0 | 7.0 | 0.00 | 0.00 | 0.00 | 100 | 954.5 |
| 20260904161024 | 72 | 162 | 4.0 | 10.0 | 0.00 | 0.00 | 0.00 | 100 | 954.6 |
| 20260904160821 | 72 | 165 | 3.0 | 10.0 | 0.00 | 0.00 | 0.00 | 100 | 954.6 |
| 20260904160720 | 72 | 169 | 3.0 | 8.0 | 0.00 | 0.00 | 0.00 | 100 | 954.7 |
| 20260904160617 | 72 | 170 | 3.0 | 8.0 | 0.00 | 0.00 | 0.00 | 100 | 954.8 |
| 20260904160414 | 73 | 164 | 4.0 | 9.0 | 0.00 | 0.00 | 0.00 | 100 | 954.8 |
| 20260904160211 | 73 | 174 | 3.0 | 9.0 | 0.00 | 0.00 | 0.00 | 100 | 954.8 |
| 20260904160110 | 73 | 181 | 2.0 | 9.0 | 0.00 | 0.00 | 0.00 | 100 | 954.7 |
| 20260904160008 | 73 | 206 | 2.0 | 6.0 | 0.00 | 0.00 | 0.00 | 100 | 954.8 |
| 20260904155805 | 73 | 170 | 2.0 | 7.0 | 0.00 | 0.00 | 0.00 | 100 | 954.9 |
| 20260904155602 | 73 | 156 | 2.0 | 7.0 | 0.00 | 0.00 | 0.00 | 100 | 954.8 |
| 20260904155500 | 73 | 154 | 3.0 | 7.0 | 0.00 | 0.00 | 0.00 | 100 | 954.8 |
| 20260904155358 | 73 | 155 | 2.0 | 7.0 | 0.00 | 0.00 | 0.00 | 100 | 954.7 |
| 20260904155155 | 73 | 170 | 2.0 | 9.0 | 0.00 | 0.00 | 0.00 | 100 | 954.9 |
| 20260904154951 | 73 | 249 | 4.0 | 9.0 | 0.00 | 0.00 | 0.00 | 100 | 955.0 |
| 20260904154851 | 73 | 252 | 3.0 | 9.0 | 0.00 | 0.00 | 0.00 | 100 | 954.9 |
| 20260904154748 | 73 | 261 | 2.0 | 9.0 | 0.00 | 0.00 | 0.00 | 100 | 954.9 |
| 20260904154545 | 73 | 0 | 2.0 | 4.0 | 0.00 | 0.00 | 0.00 | 100 | 954.9 |
| 20260904154328 | 73 | 152 | 2.0 | 6.0 | 0.00 | 0.00 | 0.00 | 100 | 955.0 |
| 20260904154227 | 73 | 118 | 2.0 | 7.0 | 0.00 | 0.00 | 0.00 | 100 | 955.0 |
| 20260904154125 | 73 | 0 | 3.0 | 10.0 | 0.00 | 0.00 | 0.00 | 100 | 955.0 |
| 20260904153922 | 73 | 0 | 3.0 | 10.0 | 0.00 | 0.00 | 0.00 | 100 | 955.0 |
| 20260904153718 | 73 | 141 | 2.0 | 8.0 | 0.00 | 0.00 | 0.00 | 100 | 955.0 |
| 20260904153618 | 73 | 133 | 2.0 | 6.0 | 0.00 | 0.00 | 0.00 | 100 | 955.0 |
| 20260904153515 | 73 | 141 | 3.0 | 8.0 | 0.00 | 0.00 | 0.00 | 100 | 955.2 |
| 20260904153313 | 73 | 142 | 2.0 | 8.0 | 0.00 | 0.00 | 0.00 | 100 | 955.1 |
| 20260904153109 | 73 | 181 | 2.0 | 4.0 | 0.00 | 0.00 | 0.00 | 100 | 955.1 |
| 20260904153008 | 73 | 178 | 2.0 | 9.0 | 0.00 | 0.00 | 0.00 | 100 | 955.2 |
| 20260904152906 | 73 | 176 | 2.0 | 9.0 | 0.00 | 0.00 | 0.00 | 100 | 955.1 |
| 20260904152704 | 73 | 140 | 2.0 | 9.0 | 0.00 | 0.00 | 0.00 | 100 | 955.1 |
| 20260904152501 | 73 | 0 | 1.0 | 5.0 | 0.00 | 0.00 | 0.00 | 100 | 955.1 |
| 20260904152257 | 74 | 208 | 2.0 | 11.0 | 0.00 | 0.00 | 0.00 | 100 | 955.1 |
| 20260904152054 | 73 | 187 | 3.0 | 11.0 | 0.00 | 0.00 | 0.00 | 100 | 955.1 |
| 20260904151851 | 73 | 187 | 2.0 | 8.0 | 0.00 | 0.00 | 0.00 | 100 | 955.2 |
| 20260904151750 | 73 | 172 | 4.0 | 13.0 | 0.00 | 0.00 | 0.00 | 100 | 955.2 |
| 20260904151648 | 73 | 176 | 4.0 | 13.0 | 0.00 | 0.00 | 0.00 | 100 | 955.1 |
| 20260904151444 | 73 | 171 | 4.0 | 13.0 | 0.00 | 0.00 | 0.00 | 100 | 955.1 |
| 20260904151241 | 73 | 193 | 2.0 | 6.0 | 0.00 | 0.00 | 0.00 | 100 | 955.1 |
| 20260904151142 | 73 | 196 | 2.0 | 6.0 | 0.00 | 0.00 | 0.00 | 100 | 955.1 |
| 20260904151039 | 73 | 206 | 2.0 | 8.0 | 0.00 | 0.00 | 0.00 | 100 | 955.1 |
| 20260904150836 | 73 | 218 | 2.0 | 9.0 | 0.00 | 0.00 | 0.00 | 100 | 955.1 |
| 20260904150633 | 73 | 211 | 3.0 | 9.0 | 0.00 | 0.00 | 0.00 | 100 | 955.2 |
| 20260904150532 | 73 | 216 | 3.0 | 9.0 | 0.00 | 0.00 | 0.00 | 100 | 955.3 |
| 20260904150430 | 73 | 239 | 3.0 | 10.0 | 0.00 | 0.00 | 0.00 | 100 | 955.4 |
| 20260904150226 | 73 | 263 | 4.0 | 11.0 | 0.00 | 0.00 | 0.00 | 100 | 955.4 |
| 20260904150023 | 73 | 256 | 3.0 | 11.0 | 0.00 | 0.00 | 0.00 | 100 | 955.4 |
| 20260904145923 | 73 | 236 | 3.0 | 11.0 | 0.00 | 0.00 | 0.00 | 100 | 955.5 |
| 20260904145820 | 74 | 0 | 2.0 | 7.0 | 0.00 | 0.00 | 0.00 | 100 | 955.5 |
| 20260904145617 | 74 | 232 | 2.0 | 7.0 | 0.00 | 0.00 | 0.00 | 100 | 955.4 |
| 20260904145414 | 74 | 228 | 2.0 | 10.0 | 0.00 | 0.00 | 0.00 | 100 | 955.4 |
| 20260904145321 | 74 | 194 | 2.0 | 10.0 | 0.00 | 0.00 | 0.00 | 100 | 955.4 |
| 20260904145008 | 73 | 187 | 2.0 | 7.0 | 0.00 | 0.00 | 0.00 | 100 | 955.5 |
| 20260904144804 | 74 | 217 | 2.0 | 9.0 | 0.00 | 0.00 | 0.00 | 100 | 955.4 |
| 20260904144704 | 74 | 218 | 2.0 | 12.0 | 0.00 | 0.00 | 0.00 | 100 | 955.5 |
| 20260904144601 | 73 | 217 | 3.0 | 12.0 | 0.00 | 0.00 | 0.00 | 100 | 955.4 |
| 20260904144358 | 74 | 218 | 2.0 | 12.0 | 0.00 | 0.00 | 0.00 | 100 | 955.5 |
| 20260904144155 | 74 | 205 | 2.0 | 8.0 | 0.00 | 0.00 | 0.00 | 100 | 955.5 |
| 20260904144054 | 74 | 202 | 2.0 | 8.0 | 0.00 | 0.00 | 0.00 | 100 | 955.5 |
| 20260904143952 | 74 | 204 | 2.0 | 8.0 | 0.00 | 0.00 | 0.00 | 100 | 955.5 |
| 20260904143749 | 74 | 266 | 4.0 | 14.0 | 0.00 | 0.00 | 0.00 | 100 | 955.6 |
| 20260904143546 | 74 | 283 | 5.0 | 14.0 | 0.00 | 0.00 | 0.00 | 100 | 955.7 |
| 20260904143446 | 74 | 282 | 4.0 | 14.0 | 0.00 | 0.00 | 0.00 | 100 | 955.5 |
| 20260904143343 | 74 | 268 | 3.0 | 10.0 | 0.00 | 0.00 | 0.00 | 100 | 955.7 |
| 20260904143141 | 75 | 218 | 2.0 | 6.0 | 0.00 | 0.00 | 0.00 | 100 | 955.8 |
| 20260904142937 | 75 | 176 | 3.0 | 9.0 | 0.00 | 0.00 | 0.00 | 100 | 955.8 |
| 20260904142836 | 75 | 170 | 3.0 | 9.0 | 0.00 | 0.00 | 0.00 | 100 | 955.7 |
| 20260904142734 | 74 | 181 | 3.0 | 9.0 | 0.00 | 0.00 | 0.00 | 100 | 955.8 |
| 20260904142531 | 74 | 176 | 3.0 | 8.0 | 0.00 | 0.00 | 0.00 | 100 | 955.7 |
| 20260904142328 | 75 | 168 | 2.0 | 8.0 | 0.00 | 0.00 | 0.00 | 100 | 955.7 |
| 20260904142227 | 75 | 177 | 2.0 | 8.0 | 0.00 | 0.00 | 0.00 | 100 | 955.8 |
| 20260904142125 | 75 | 174 | 2.0 | 8.0 | 0.00 | 0.00 | 0.00 | 100 | 955.7 |
| 20260904141922 | 75 | 209 | 3.0 | 11.0 | 0.00 | 0.00 | 0.00 | 100 | 955.8 |
| 20260904141718 | 74 | 216 | 3.0 | 11.0 | 0.00 | 0.00 | 0.00 | 100 | 955.8 |
| 20260904141618 | 74 | 222 | 3.0 | 11.0 | 0.00 | 0.00 | 0.00 | 100 | 955.7 |
| 20260904141515 | 74 | 210 | 3.0 | 9.0 | 0.00 | 0.00 | 0.00 | 100 | 955.8 |
| 20260904141312 | 74 | 205 | 3.0 | 11.0 | 0.00 | 0.00 | 0.00 | 100 | 955.7 |
| 20260904141109 | 74 | 213 | 2.0 | 11.0 | 0.00 | 0.00 | 0.00 | 100 | 955.6 |
| 20260904141008 | 74 | 212 | 3.0 | 11.0 | 0.00 | 0.00 | 0.00 | 100 | 955.8 |
| 20260904140907 | 74 | 214 | 2.0 | 9.0 | 0.00 | 0.00 | 0.00 | 100 | 955.8 |
| 20260904140704 | 74 | 214 | 2.0 | 9.0 | 0.00 | 0.00 | 0.00 | 100 | 955.9 |
| 20260904140500 | 74 | 220 | 2.0 | 7.0 | 0.00 | 0.00 | 0.00 | 100 | 955.9 |
| 20260904140359 | 74 | 207 | 2.0 | 10.0 | 0.00 | 0.00 | 0.00 | 100 | 955.9 |
| 20260904140257 | 74 | 209 | 2.0 | 10.0 | 0.00 | 0.00 | 0.00 | 100 | 956.0 |
| 20260904140054 | 73 | 214 | 2.0 | 10.0 | 0.00 | 0.00 | 0.00 | 100 | 956.0 |
| 20260904135851 | 73 | 236 | 2.0 | 8.0 | 0.00 | 0.00 | 0.00 | 100 | 956.0 |
| 20260904135749 | 74 | 235 | 2.0 | 7.0 | 0.00 | 0.00 | 0.00 | 100 | 956.1 |
| 20260904135647 | 74 | 235 | 2.0 | 7.0 | 0.00 | 0.00 | 0.00 | 100 | 956.0 |
| 20260904135444 | 74 | 225 | 2.0 | 7.0 | 0.00 | 0.00 | 0.00 | 100 | 956.1 |
| 20260904135241 | 73 | 187 | 2.0 | 7.0 | 0.00 | 0.00 | 0.00 | 100 | 956.0 |
| 20260904135141 | 73 | 186 | 3.0 | 7.0 | 0.00 | 0.00 | 0.00 | 100 | 956.1 |
| 20260904135038 | 73 | 183 | 3.0 | 10.0 | 0.00 | 0.00 | 0.00 | 100 | 956.1 |
| 20260904134835 | 73 | 217 | 3.0 | 10.0 | 0.00 | 0.00 | 0.00 | 100 | 956.0 |
| 20260904134632 | 73 | 255 | 2.0 | 9.0 | 0.00 | 0.00 | 0.00 | 100 | 956.0 |
| 20260904134531 | 73 | 246 | 2.0 | 8.0 | 0.00 | 0.00 | 0.00 | 100 | 956.1 |
| 20260904134429 | 73 | 222 | 2.0 | 7.0 | 0.00 | 0.00 | 0.00 | 100 | 956.1 |
| 20260904134225 | 73 | 246 | 2.0 | 8.0 | 0.00 | 0.00 | 0.00 | 100 | 956.2 |
| 20260904134023 | 73 | 226 | 2.0 | 10.0 | 0.00 | 0.00 | 0.00 | 100 | 956.3 |
| 20260904133922 | 73 | 214 | 2.0 | 10.0 | 0.00 | 0.00 | 0.00 | 100 | 956.3 |
| 20260904133819 | 73 | 214 | 2.0 | 10.0 | 0.00 | 0.00 | 0.00 | 100 | 956.3 |
| 20260904133616 | 73 | 230 | 2.0 | 9.0 | 0.00 | 0.00 | 0.00 | 100 | 956.3 |
| 20260904133413 | 73 | 233 | 2.0 | 7.0 | 0.00 | 0.00 | 0.00 | 100 | 956.3 |
| 20260904133313 | 73 | 227 | 2.0 | 7.0 | 0.00 | 0.00 | 0.00 | 100 | 956.3 |
| 20260904133211 | 73 | 225 | 2.0 | 7.0 | 0.00 | 0.00 | 0.00 | 100 | 956.3 |
| 20260904133008 | 73 | 228 | 2.0 | 9.0 | 0.00 | 0.00 | 0.00 | 100 | 956.4 |
| 20260904132805 | 73 | 239 | 2.0 | 9.0 | 0.00 | 0.00 | 0.00 | 100 | 956.5 |
| 20260904132704 | 73 | 233 | 2.0 | 9.0 | 0.00 | 0.00 | 0.00 | 100 | 956.5 |
| 20260904132601 | 73 | 243 | 2.0 | 8.0 | 0.00 | 0.00 | 0.00 | 100 | 956.5 |
| 20260904132359 | 73 | 211 | 2.0 | 11.0 | 0.00 | 0.00 | 0.00 | 100 | 956.5 |
| 20260904132156 | 73 | 214 | 3.0 | 13.0 | 0.00 | 0.00 | 0.00 | 100 | 956.3 |
| 20260904132055 | 73 | 235 | 3.0 | 13.0 | 0.00 | 0.00 | 0.00 | 100 | 956.5 |
| 20260904131953 | 73 | 238 | 3.0 | 13.0 | 0.00 | 0.00 | 0.00 | 100 | 956.4 |
| 20260904131751 | 73 | 252 | 2.0 | 13.0 | 0.00 | 0.00 | 0.00 | 100 | 956.5 |
| 20260904131548 | 73 | 234 | 3.0 | 13.0 | 0.00 | 0.00 | 0.00 | 100 | 956.6 |
| 20260904131447 | 73 | 213 | 2.0 | 13.0 | 0.00 | 0.00 | 0.00 | 100 | 956.6 |
| 20260904131344 | 74 | 217 | 2.0 | 10.0 | 0.00 | 0.00 | 0.00 | 100 | 956.5 |
| 20260904131141 | 74 | 217 | 2.0 | 7.0 | 0.00 | 0.00 | 0.00 | 100 | 956.5 |
| 20260904130939 | 74 | 236 | 2.0 | 10.0 | 0.00 | 0.00 | 0.00 | 100 | 956.5 |
| 20260904130838 | 74 | 220 | 2.0 | 10.0 | 0.00 | 0.00 | 0.00 | 100 | 956.5 |
| 20260904130735 | 74 | 228 | 2.0 | 9.0 | 0.00 | 0.00 | 0.00 | 100 | 956.5 |
| 20260904130533 | 75 | 218 | 2.0 | 10.0 | 0.00 | 0.00 | 0.00 | 100 | 956.6 |
| 20260904130320 | 74 | 232 | 3.0 | 18.0 | 0.00 | 0.00 | 0.00 | 100 | 956.6 |
| 20260904130219 | 74 | 232 | 3.0 | 18.0 | 0.00 | 0.00 | 0.00 | 100 | 956.6 |
| 20260904130117 | 74 | 240 | 4.0 | 18.0 | 0.00 | 0.00 | 0.00 | 100 | 956.6 |
| 20260904125914 | 74 | 238 | 3.0 | 18.0 | 0.00 | 0.00 | 0.00 | 100 | 956.4 |
| 20260904125710 | 74 | 233 | 2.0 | 11.0 | 0.00 | 0.00 | 0.00 | 100 | 956.6 |
| 20260904125610 | 74 | 244 | 2.0 | 8.0 | 0.00 | 0.00 | 0.00 | 100 | 956.6 |
| 20260904125507 | 74 | 224 | 2.0 | 8.0 | 0.00 | 0.00 | 0.00 | 100 | 956.6 |
| 20260904125305 | 74 | 218 | 2.0 | 12.0 | 0.00 | 0.00 | 0.00 | 100 | 956.6 |
| 20260904125100 | 73 | 216 | 3.0 | 12.0 | 0.00 | 0.00 | 0.00 | 100 | 956.7 |
| 20260904125000 | 73 | 212 | 2.0 | 9.0 | 0.00 | 0.00 | 0.00 | 100 | 956.8 |
| 20260904124857 | 73 | 215 | 2.0 | 9.0 | 0.00 | 0.00 | 0.00 | 100 | 956.8 |
| 20260904124655 | 73 | 228 | 2.0 | 9.0 | 0.00 | 0.00 | 0.00 | 100 | 956.8 |
| 20260904124451 | 73 | 229 | 2.0 | 10.0 | 0.00 | 0.00 | 0.00 | 100 | 956.9 |
| 20260904124351 | 73 | 232 | 2.0 | 12.0 | 0.00 | 0.00 | 0.00 | 100 | 956.9 |
| 20260904124248 | 73 | 224 | 2.0 | 12.0 | 0.00 | 0.00 | 0.00 | 100 | 957.0 |
| 20260904124045 | 72 | 215 | 2.0 | 12.0 | 0.00 | 0.00 | 0.00 | 100 | 956.9 |
| 20260904123842 | 72 | 220 | 2.0 | 11.0 | 0.00 | 0.00 | 0.00 | 100 | 957.1 |
| 20260904123741 | 72 | 225 | 2.0 | 11.0 | 0.00 | 0.00 | 0.00 | 100 | 957.1 |
| 20260904123639 | 72 | 223 | 2.0 | 11.0 | 0.00 | 0.00 | 0.00 | 100 | 957.0 |
| 20260904123436 | 72 | 236 | 2.0 | 13.0 | 0.00 | 0.00 | 0.00 | 100 | 957.1 |
| 20260904123233 | 73 | 200 | 4.0 | 14.0 | 0.00 | 0.00 | 0.00 | 100 | 957.1 |
| 20260904123132 | 72 | 200 | 5.0 | 15.0 | 0.00 | 0.00 | 0.00 | 100 | 957.1 |
| 20260904123029 | 72 | 190 | 5.0 | 15.0 | 0.00 | 0.00 | 0.00 | 100 | 957.1 |
| 20260904122826 | 72 | 182 | 3.0 | 15.0 | 0.00 | 0.00 | 0.00 | 100 | 957.1 |
| 20260904122623 | 73 | 234 | 2.0 | 8.0 | 0.00 | 0.00 | 0.00 | 100 | 957.3 |
| 20260904122420 | 73 | 211 | 2.0 | 9.0 | 0.00 | 0.00 | 0.00 | 100 | 957.2 |
| 20260904122217 | 73 | 217 | 2.0 | 9.0 | 0.00 | 0.00 | 0.00 | 100 | 957.2 |
| 20260904122014 | 74 | 220 | 2.0 | 8.0 | 0.00 | 0.00 | 0.00 | 100 | 957.3 |
| 20260904121913 | 73 | 231 | 2.0 | 10.0 | 0.00 | 0.00 | 0.00 | 100 | 957.3 |
| 20260904121811 | 73 | 236 | 2.0 | 10.0 | 0.00 | 0.00 | 0.00 | 100 | 957.3 |
| 20260904121607 | 72 | 241 | 2.0 | 10.0 | 0.00 | 0.00 | 0.00 | 100 | 957.3 |
| 20260904121404 | 73 | 225 | 2.0 | 14.0 | 0.00 | 0.00 | 0.00 | 100 | 957.3 |
| 20260904121303 | 72 | 228 | 2.0 | 14.0 | 0.00 | 0.00 | 0.00 | 100 | 957.4 |
| 20260904121201 | 73 | 222 | 2.0 | 14.0 | 0.00 | 0.00 | 0.00 | 100 | 957.4 |
| 20260904120957 | 73 | 206 | 2.0 | 9.0 | 0.00 | 0.00 | 0.00 | 100 | 957.4 |
| 20260904120755 | 73 | 210 | 3.0 | 9.0 | 0.00 | 0.00 | 0.00 | 100 | 957.5 |
| 20260904120654 | 73 | 215 | 3.0 | 8.0 | 0.00 | 0.00 | 0.00 | 100 | 957.6 |
| 20260904120552 | 72 | 214 | 4.0 | 9.0 | 0.00 | 0.00 | 0.00 | 100 | 957.5 |
| 20260904120349 | 72 | 199 | 4.0 | 13.0 | 0.00 | 0.00 | 0.00 | 100 | 957.5 |
| 20260904120146 | 72 | 209 | 2.0 | 13.0 | 0.00 | 0.00 | 0.00 | 100 | 957.6 |
| 20260904120045 | 72 | 213 | 2.0 | 9.0 | 0.00 | 0.00 | 0.00 | 100 | 957.5 |
| 20260904115943 | 72 | 217 | 2.0 | 9.0 | 0.00 | 0.00 | 0.00 | 100 | 957.5 |
| 20260904115740 | 71 | 207 | 2.0 | 9.0 | 0.00 | 0.00 | 0.00 | 100 | 957.5 |
| 20260904115537 | 71 | 216 | 2.0 | 7.0 | 0.00 | 0.00 | 0.00 | 100 | 957.7 |
| 20260904115333 | 71 | 215 | 2.0 | 7.0 | 0.00 | 0.00 | 0.00 | 100 | 957.7 |
| 20260904114927 | 70 | 224 | 2.0 | 12.0 | 0.00 | 0.00 | 0.00 | 100 | 957.8 |
| 20260904114826 | 70 | 220 | 2.0 | 12.0 | 0.00 | 0.00 | 0.00 | 100 | 957.8 |
| 20260904114318 | 70 | 232 | 3.0 | 15.0 | 0.00 | 0.00 | 0.00 | 100 | 957.7 |
| 20260904114217 | 70 | 220 | 3.0 | 15.0 | 0.00 | 0.00 | 0.00 | 100 | 957.8 |
| 20260904114114 | 70 | 230 | 3.0 | 15.0 | 0.00 | 0.00 | 0.00 | 100 | 957.7 |
| 20260904113911 | 70 | 236 | 2.0 | 12.0 | 0.00 | 0.00 | 0.00 | 100 | 957.7 |
| 20260904113707 | 70 | 0 | 2.0 | 12.0 | 0.00 | 0.00 | 0.00 | 100 | 957.6 |
| 20260904113607 | 70 | 0 | 2.0 | 11.0 | 0.00 | 0.00 | 0.00 | 100 | 957.8 |
| 20260904113504 | 70 | 239 | 2.0 | 11.0 | 0.00 | 0.00 | 0.00 | 100 | 957.7 |
| 20260904113301 | 70 | 238 | 2.0 | 11.0 | 0.00 | 0.00 | 0.00 | 100 | 957.7 |
| 20260904113058 | 71 | 245 | 2.0 | 7.0 | 0.00 | 0.00 | 0.00 | 100 | 957.7 |
| 20260904112957 | 71 | 248 | 2.0 | 8.0 | 0.00 | 0.00 | 0.00 | 100 | 957.8 |
| 20260904112855 | 71 | 233 | 2.0 | 14.0 | 0.00 | 0.00 | 0.00 | 100 | 957.8 |
| 20260904112652 | 71 | 247 | 6.0 | 26.0 | 0.00 | 0.00 | 0.00 | 100 | 957.8 |
| 20260904112449 | 70 | 251 | 6.0 | 26.0 | 0.00 | 0.00 | 0.00 | 100 | 957.7 |
| 20260904112246 | 71 | 234 | 3.0 | 14.0 | 0.00 | 0.00 | 0.00 | 100 | 957.7 |
| 20260904112043 | 71 | 220 | 3.0 | 15.0 | 0.00 | 0.00 | 0.00 | 100 | 957.7 |
| 20260904111839 | 71 | 217 | 3.0 | 11.0 | 0.00 | 0.00 | 0.00 | 100 | 957.8 |
| 20260904111739 | 71 | 215 | 2.0 | 10.0 | 0.00 | 0.00 | 0.00 | 100 | 957.8 |
| 20260904111635 | 71 | 212 | 2.0 | 10.0 | 0.00 | 0.00 | 0.00 | 100 | 957.9 |
| 20260904111432 | 71 | 218 | 2.0 | 9.0 | 0.00 | 0.00 | 0.00 | 100 | 957.8 |
| 20260904111229 | 71 | 223 | 2.0 | 9.0 | 0.00 | 0.00 | 0.00 | 100 | 958.0 |
| 20260904111128 | 71 | 236 | 3.0 | 18.0 | 0.00 | 0.00 | 0.00 | 100 | 957.9 |
| 20260904111026 | 71 | 230 | 3.0 | 18.0 | 0.00 | 0.00 | 0.00 | 100 | 957.9 |
| 20260904110823 | 71 | 235 | 3.0 | 18.0 | 0.00 | 0.00 | 0.00 | 100 | 957.8 |
| 20260904110620 | 71 | 221 | 2.0 | 11.0 | 0.00 | 0.00 | 0.00 | 100 | 958.0 |
| 20260904110519 | 71 | 220 | 2.0 | 11.0 | 0.00 | 0.00 | 0.00 | 100 | 957.9 |
| 20260904110417 | 71 | 215 | 2.0 | 11.0 | 0.00 | 0.00 | 0.00 | 100 | 958.0 |
| 20260904110213 | 71 | 231 | 2.0 | 9.0 | 0.00 | 0.00 | 0.00 | 100 | 957.9 |
| 20260904110010 | 71 | 230 | 2.0 | 8.0 | 0.00 | 0.00 | 0.00 | 100 | 958.0 |
| 20260904105807 | 71 | 180 | 3.0 | 14.0 | 0.00 | 0.00 | 0.00 | 100 | 958.2 |
| 20260904105604 | 71 | 182 | 4.0 | 14.0 | 0.00 | 0.00 | 0.00 | 100 | 958.0 |
| 20260904105401 | 72 | 224 | 3.0 | 12.0 | 0.00 | 0.00 | 0.00 | 100 | 958.2 |
| 20260904105301 | 72 | 233 | 3.0 | 12.0 | 0.00 | 0.00 | 0.00 | 100 | 958.2 |
| 20260904105158 | 73 | 236 | 3.0 | 12.0 | 0.00 | 0.00 | 0.00 | 100 | 958.1 |
| 20260904104955 | 73 | 225 | 2.0 | 9.0 | 0.00 | 0.00 | 0.00 | 100 | 958.2 |
| 20260904104752 | 73 | 225 | 2.0 | 9.0 | 0.00 | 0.00 | 0.00 | 100 | 958.2 |
| 20260904104652 | 73 | 218 | 2.0 | 9.0 | 0.00 | 0.00 | 0.00 | 100 | 958.2 |
| 20260904104549 | 73 | 222 | 2.0 | 9.0 | 0.00 | 0.00 | 0.00 | 100 | 958.2 |
| 20260904104346 | 72 | 219 | 2.0 | 9.0 | 0.00 | 0.00 | 0.00 | 100 | 958.2 |
| 20260904104143 | 72 | 222 | 2.0 | 8.0 | 0.00 | 0.00 | 0.00 | 100 | 958.3 |
| 20260904104042 | 72 | 227 | 2.0 | 9.0 | 0.00 | 0.00 | 0.00 | 100 | 958.2 |
| 20260904103940 | 72 | 224 | 2.0 | 11.0 | 0.00 | 0.00 | 0.00 | 100 | 958.2 |
| 20260904103736 | 72 | 220 | 2.0 | 11.0 | 0.00 | 0.00 | 0.00 | 100 | 958.3 |
| 20260904103534 | 72 | 238 | 2.0 | 7.0 | 0.00 | 0.00 | 0.00 | 100 | 958.3 |
| 20260904103331 | 72 | 243 | 2.0 | 11.0 | 0.00 | 0.00 | 0.00 | 100 | 958.4 |
| 20260904103128 | 73 | 211 | 2.0 | 11.0 | 0.00 | 0.00 | 0.00 | 100 | 958.5 |
| 20260904102925 | 72 | 258 | 2.0 | 9.0 | 0.00 | 0.00 | 0.00 | 100 | 958.4 |
| 20260904102824 | 71 | 270 | 3.0 | 8.0 | 0.00 | 0.00 | 0.00 | 100 | 958.6 |
| 20260904102722 | 70 | 265 | 3.0 | 8.0 | 0.00 | 0.00 | 0.00 | 100 | 958.5 |
| 20260904102506 | 71 | 242 | 3.0 | 9.0 | 0.00 | 0.00 | 0.00 | 100 | 958.6 |
| 20260904102306 | 70 | 246 | 4.0 | 13.0 | 0.00 | 0.00 | 0.00 | 100 | 958.7 |
| 20260904102202 | 70 | 260 | 6.0 | 17.0 | 0.00 | 0.00 | 0.00 | 100 | 958.7 |
| 20260904102059 | 70 | 276 | 7.0 | 17.0 | 0.00 | 0.00 | 0.00 | 100 | 958.6 |
| 20260904101856 | 70 | 292 | 6.0 | 17.0 | 0.00 | 0.00 | 0.00 | 100 | 958.5 |
| 20260904101653 | 72 | 277 | 2.0 | 8.0 | 0.00 | 0.00 | 0.00 | 100 | 958.7 |
| 20260904101552 | 72 | 251 | 2.0 | 8.0 | 0.00 | 0.00 | 0.00 | 100 | 958.6 |
| 20260904101449 | 72 | 236 | 2.0 | 8.0 | 0.00 | 0.00 | 0.00 | 100 | 958.6 |
| 20260904101246 | 71 | 257 | 3.0 | 10.0 | 0.00 | 0.00 | 0.00 | 100 | 958.7 |
| 20260904101044 | 70 | 250 | 4.0 | 10.0 | 0.00 | 0.00 | 0.00 | 100 | 958.7 |
| 20260904100943 | 70 | 240 | 3.0 | 10.0 | 0.00 | 0.00 | 0.00 | 100 | 958.7 |
| 20260904100840 | 70 | 211 | 3.0 | 10.0 | 0.00 | 0.00 | 0.00 | 100 | 958.7 |
| 20260904100637 | 71 | 240 | 2.0 | 10.0 | 0.00 | 0.00 | 0.00 | 100 | 958.5 |
| 20260904100434 | 71 | 225 | 2.0 | 10.0 | 0.00 | 0.00 | 0.00 | 100 | 958.5 |
| 20260904100335 | 71 | 210 | 2.0 | 10.0 | 0.00 | 0.00 | 0.00 | 100 | 958.7 |
| 20260904100230 | 71 | 213 | 2.0 | 10.0 | 0.00 | 0.00 | 0.00 | 100 | 958.6 |
| 20260904100027 | 72 | 213 | 2.0 | 9.0 | 0.00 | 0.00 | 0.00 | 100 | 958.6 |
| 20260904095824 | 71 | 202 | 2.0 | 15.0 | 0.00 | 0.00 | 0.00 | 100 | 958.7 |
| 20260904095724 | 71 | 195 | 3.0 | 15.0 | 0.00 | 0.00 | 0.00 | 100 | 958.8 |
| 20260904095621 | 70 | 200 | 3.0 | 15.0 | 0.00 | 0.00 | 0.00 | 100 | 958.6 |
| 20260904095418 | 69 | 219 | 2.0 | 9.0 | 0.00 | 0.00 | 0.00 | 100 | 958.6 |
| 20260904095214 | 70 | 212 | 2.0 | 9.0 | 0.00 | 0.00 | 0.00 | 100 | 958.5 |
| 20260904095011 | 69 | 220 | 2.0 | 10.0 | 0.00 | 0.00 | 0.00 | 100 | 958.6 |
| 20260904094808 | 69 | 221 | 2.0 | 10.0 | 0.00 | 0.00 | 0.00 | 100 | 958.5 |
| 20260904094605 | 69 | 0 | 2.0 | 9.0 | 0.00 | 0.00 | 0.00 | 100 | 958.5 |
| 20260904094504 | 69 | 0 | 2.0 | 9.0 | 0.00 | 0.00 | 0.00 | 100 | 958.6 |
| 20260904094402 | 69 | 229 | 2.0 | 9.0 | 0.00 | 0.00 | 0.00 | 100 | 958.7 |
| 20260904094159 | 69 | 241 | 2.0 | 10.0 | 0.00 | 0.00 | 0.00 | 100 | 958.6 |
| 20260904093955 | 69 | 264 | 3.0 | 11.0 | 0.00 | 0.00 | 0.00 | 100 | 958.7 |
| 20260904093855 | 69 | 265 | 3.0 | 11.0 | 0.00 | 0.00 | 0.00 | 100 | 958.8 |
| 20260904093752 | 69 | 269 | 3.0 | 11.0 | 0.00 | 0.00 | 0.00 | 100 | 958.7 |
| 20260904093549 | 69 | 248 | 3.0 | 11.0 | 0.00 | 0.00 | 0.00 | 100 | 958.7 |
| 20260904093347 | 69 | 243 | 3.0 | 9.0 | 0.00 | 0.00 | 0.00 | 100 | 959.0 |
| 20260904093247 | 69 | 247 | 3.0 | 9.0 | 0.00 | 0.00 | 0.00 | 100 | 958.9 |
| 20260904093144 | 69 | 241 | 3.0 | 9.0 | 0.00 | 0.00 | 0.00 | 100 | 959.0 |
| 20260904092941 | 69 | 233 | 2.0 | 9.0 | 0.00 | 0.00 | 0.00 | 100 | 958.9 |
| 20260904092738 | 69 | 229 | 1.0 | 6.0 | 0.00 | 0.00 | 0.00 | 100 | 959.0 |
| 20260904092637 | 69 | 233 | 2.0 | 9.0 | 0.00 | 0.00 | 0.00 | 100 | 958.9 |
| 20260904092534 | 69 | 251 | 3.0 | 10.0 | 0.00 | 0.00 | 0.00 | 100 | 959.0 |
| 20260904092332 | 69 | 249 | 3.0 | 10.0 | 0.00 | 0.00 | 0.00 | 100 | 959.0 |
| 20260904092129 | 69 | 226 | 2.0 | 10.0 | 0.00 | 0.00 | 0.00 | 100 | 958.9 |
| 20260904092028 | 69 | 228 | 2.0 | 10.0 | 0.00 | 0.00 | 0.00 | 100 | 958.9 |
| 20260904091926 | 69 | 218 | 2.0 | 6.0 | 0.00 | 0.00 | 0.00 | 100 | 958.9 |
| 20260904091722 | 69 | 221 | 2.0 | 9.0 | 0.00 | 0.00 | 0.00 | 100 | 958.9 |
| 20260904091519 | 69 | 208 | 2.0 | 12.0 | 0.00 | 0.00 | 0.00 | 100 | 959.0 |
| 20260904091419 | 69 | 206 | 2.0 | 12.0 | 0.00 | 0.00 | 0.00 | 100 | 958.9 |
| 20260904091316 | 69 | 200 | 2.0 | 12.0 | 0.00 | 0.00 | 0.00 | 100 | 958.9 |
| 20260904091113 | 70 | 196 | 2.0 | 7.0 | 0.00 | 0.00 | 0.00 | 100 | 959.0 |
| 20260904090910 | 69 | 201 | 3.0 | 11.0 | 0.00 | 0.00 | 0.00 | 100 | 959.0 |
| 20260904090707 | 69 | 206 | 3.0 | 11.0 | 0.00 | 0.00 | 0.00 | 100 | 959.0 |
| 20260904090504 | 69 | 209 | 2.0 | 8.0 | 0.00 | 0.00 | 0.00 | 100 | 959.0 |
| 20260904090259 | 69 | 215 | 2.0 | 7.0 | 0.00 | 0.00 | 0.00 | 100 | 959.0 |
| 20260904090158 | 69 | 218 | 2.0 | 12.0 | 0.00 | 0.00 | 0.00 | 100 | 959.2 |
| 20260904090056 | 69 | 219 | 3.0 | 12.0 | 0.00 | 0.00 | 0.00 | 100 | 959.2 |
| 20260904085853 | 68 | 234 | 3.0 | 12.0 | 0.00 | 0.00 | 0.00 | 100 | 959.1 |
| 20260904085651 | 68 | 228 | 2.0 | 11.0 | 0.00 | 0.00 | 0.00 | 100 | 959.0 |
| 20260904085551 | 68 | 204 | 2.0 | 10.0 | 0.00 | 0.00 | 0.00 | 100 | 959.1 |
| 20260904085448 | 68 | 214 | 2.0 | 10.0 | 0.00 | 0.00 | 0.00 | 100 | 959.1 |
| 20260904085245 | 68 | 213 | 2.0 | 10.0 | 0.00 | 0.00 | 0.00 | 100 | 959.2 |
| 20260904085042 | 68 | 229 | 2.0 | 10.0 | 0.00 | 0.00 | 0.00 | 100 | 959.2 |
| 20260904084941 | 68 | 238 | 2.0 | 10.0 | 0.00 | 0.00 | 0.00 | 100 | 959.3 |
| 20260904084838 | 68 | 234 | 2.0 | 10.0 | 0.00 | 0.00 | 0.00 | 100 | 959.3 |
| 20260904084635 | 68 | 208 | 2.0 | 11.0 | 0.00 | 0.00 | 0.00 | 100 | 959.3 |
| 20260904084432 | 68 | 214 | 2.0 | 11.0 | 0.00 | 0.00 | 0.00 | 100 | 959.2 |
| 20260904084331 | 68 | 232 | 1.0 | 8.0 | 0.00 | 0.00 | 0.00 | 100 | 959.2 |
| 20260904084229 | 68 | 0 | 1.0 | 5.0 | 0.00 | 0.00 | 0.00 | 100 | 959.3 |
| 20260904084026 | 67 | 0 | 1.0 | 4.0 | 0.00 | 0.00 | 0.00 | 100 | 959.3 |
| 20260904083822 | 67 | 220 | 2.0 | 7.0 | 0.00 | 0.00 | 0.00 | 100 | 959.3 |
| 20260904083721 | 67 | 219 | 2.0 | 7.0 | 0.00 | 0.00 | 0.00 | 100 | 959.3 |
| 20260904083619 | 67 | 219 | 2.0 | 6.0 | 0.00 | 0.00 | 0.00 | 100 | 959.3 |
| 20260904083416 | 67 | 221 | 2.0 | 6.0 | 0.00 | 0.00 | 0.00 | 100 | 959.4 |
| 20260904083212 | 67 | 223 | 2.0 | 8.0 | 0.00 | 0.00 | 0.00 | 100 | 959.5 |
| 20260904083111 | 67 | 219 | 2.0 | 8.0 | 0.00 | 0.00 | 0.00 | 100 | 959.4 |
| 20260904083009 | 67 | 240 | 2.0 | 8.0 | 0.00 | 0.00 | 0.00 | 100 | 959.5 |
| 20260904082807 | 67 | 250 | 2.0 | 8.0 | 0.00 | 0.00 | 0.00 | 100 | 959.4 |
| 20260904082604 | 67 | 258 | 3.0 | 8.0 | 0.00 | 0.00 | 0.00 | 100 | 959.4 |
| 20260904082503 | 67 | 243 | 2.0 | 8.0 | 0.00 | 0.00 | 0.00 | 100 | 959.4 |
| 20260904082401 | 67 | 243 | 2.0 | 9.0 | 0.00 | 0.00 | 0.00 | 100 | 959.5 |
| 20260904082158 | 67 | 241 | 2.0 | 6.0 | 0.00 | 0.00 | 0.00 | 100 | 959.5 |
| 20260904081955 | 66 | 234 | 1.0 | 9.0 | 0.00 | 0.00 | 0.00 | 100 | 959.5 |
| 20260904081854 | 66 | 218 | 1.0 | 9.0 | 0.00 | 0.00 | 0.00 | 100 | 959.5 |
| 20260904081752 | 66 | 219 | 1.0 | 9.0 | 0.00 | 0.00 | 0.00 | 100 | 959.4 |
| 20260904081549 | 66 | 224 | 2.0 | 8.0 | 0.00 | 0.00 | 0.00 | 100 | 959.5 |
| 20260904081347 | 66 | 241 | 2.0 | 8.0 | 0.00 | 0.00 | 0.00 | 100 | 959.3 |
| 20260904081246 | 66 | 247 | 3.0 | 13.0 | 0.00 | 0.00 | 0.00 | 100 | 959.3 |
| 20260904081144 | 66 | 248 | 4.0 | 13.0 | 0.00 | 0.00 | 0.00 | 100 | 959.4 |
| 20260904080940 | 65 | 245 | 3.0 | 13.0 | 0.00 | 0.00 | 0.00 | 100 | 959.3 |
| 20260904080738 | 66 | 219 | 2.0 | 6.0 | 0.00 | 0.00 | 0.00 | 100 | 959.6 |
| 20260904080637 | 66 | 222 | 1.0 | 6.0 | 0.00 | 0.00 | 0.00 | 100 | 959.5 |
| 20260904080534 | 66 | 236 | 1.0 | 5.0 | 0.00 | 0.00 | 0.00 | 100 | 959.5 |
| 20260904080331 | 66 | 228 | 1.0 | 5.0 | 0.00 | 0.00 | 0.00 | 100 | 959.4 |
| 20260904080128 | 66 | 239 | 1.0 | 8.0 | 0.00 | 0.00 | 0.00 | 100 | 959.4 |
| 20260904080027 | 66 | 243 | 2.0 | 10.0 | 0.00 | 0.00 | 0.00 | 100 | 959.4 |
| 20260904075925 | 66 | 236 | 3.0 | 10.0 | 0.00 | 0.00 | 0.00 | 100 | 959.5 |
| 20260904075722 | 66 | 236 | 4.0 | 14.0 | 0.00 | 0.00 | 0.00 | 100 | 959.4 |
| 20260904075519 | 66 | 242 | 2.0 | 14.0 | 0.00 | 0.00 | 0.00 | 100 | 959.5 |
| 20260904075419 | 67 | 260 | 1.0 | 10.0 | 0.00 | 0.00 | 0.00 | 100 | 959.6 |
| 20260904075316 | 67 | 0 | 1.0 | 9.0 | 0.00 | 0.00 | 0.00 | 100 | 959.5 |
| 20260904075113 | 67 | 238 | 2.0 | 12.0 | 0.00 | 0.00 | 0.00 | 100 | 959.3 |
| 20260904074910 | 67 | 234 | 2.0 | 12.0 | 0.00 | 0.00 | 0.00 | 100 | 959.5 |
| 20260904074706 | 67 | 240 | 2.0 | 13.0 | 0.00 | 0.00 | 0.00 | 100 | 959.5 |
| 20260904074453 | 66 | 251 | 2.0 | 13.0 | 0.00 | 0.00 | 0.00 | 100 | 959.4 |
| 20260904074250 | 66 | 248 | 2.0 | 8.0 | 0.00 | 0.00 | 0.00 | 100 | 959.4 |
| 20260904074149 | 66 | 251 | 2.0 | 8.0 | 0.00 | 0.00 | 0.00 | 100 | 959.4 |
| 20260904074047 | 66 | 264 | 2.0 | 8.0 | 0.00 | 0.00 | 0.00 | 100 | 959.5 |
| 20260904073843 | 65 | 0 | 1.0 | 6.0 | 0.00 | 0.00 | 0.00 | 100 | 959.4 |
| 20260904073640 | 65 | 0 | 1.0 | 8.0 | 0.00 | 0.00 | 0.00 | 100 | 959.4 |
| 20260904073437 | 65 | 220 | 2.0 | 8.0 | 0.00 | 0.00 | 0.00 | 100 | 959.4 |
| 20260904073234 | 65 | 221 | 2.0 | 10.0 | 0.00 | 0.00 | 0.00 | 100 | 959.6 |
| 20260904073031 | 65 | 231 | 1.0 | 10.0 | 0.00 | 0.00 | 0.00 | 100 | 959.5 |
| 20260904072930 | 65 | 218 | 1.0 | 6.0 | 0.00 | 0.00 | 0.00 | 100 | 959.5 |
| 20260904072827 | 65 | 217 | 2.0 | 7.0 | 0.00 | 0.00 | 0.00 | 100 | 959.4 |
| 20260904072624 | 64 | 215 | 2.0 | 9.0 | 0.00 | 0.00 | 0.00 | 100 | 959.6 |
| 20260904072421 | 64 | 217 | 2.0 | 9.0 | 0.00 | 0.00 | 0.00 | 100 | 959.4 |
| 20260904072320 | 64 | 221 | 2.0 | 9.0 | 0.00 | 0.00 | 0.00 | 100 | 959.4 |
| 20260904072218 | 64 | 229 | 2.0 | 8.0 | 0.00 | 0.00 | 0.00 | 100 | 959.6 |
| 20260904072015 | 64 | 235 | 2.0 | 8.0 | 0.00 | 0.00 | 0.00 | 100 | 959.6 |
| 20260904071812 | 64 | 234 | 2.0 | 9.0 | 0.00 | 0.00 | 0.00 | 100 | 959.5 |
| 20260904071711 | 64 | 234 | 2.0 | 12.0 | 0.00 | 0.00 | 0.00 | 100 | 959.6 |
| 20260904071609 | 65 | 230 | 3.0 | 12.0 | 0.00 | 0.00 | 0.00 | 100 | 959.5 |
| 20260904071406 | 65 | 243 | 4.0 | 12.0 | 0.00 | 0.00 | 0.00 | 100 | 959.6 |
| 20260904071202 | 65 | 248 | 3.0 | 11.0 | 0.00 | 0.00 | 0.00 | 100 | 959.6 |
| 20260904070959 | 65 | 255 | 3.0 | 11.0 | 0.00 | 0.00 | 0.00 | 100 | 959.5 |
| 20260904070756 | 65 | 262 | 2.0 | 11.0 | 0.00 | 0.00 | 0.00 | 100 | 959.4 |
| 20260904070553 | 65 | 257 | 2.0 | 14.0 | 0.00 | 0.00 | 0.00 | 100 | 959.4 |
| 20260904070453 | 65 | 246 | 3.0 | 14.0 | 0.00 | 0.00 | 0.00 | 100 | 959.5 |
| 20260904070350 | 65 | 243 | 3.0 | 14.0 | 0.00 | 0.00 | 0.00 | 100 | 959.4 |
| 20260904070146 | 65 | 227 | 3.0 | 11.0 | 0.00 | 0.00 | 0.00 | 100 | 959.4 |
| 20260904065943 | 65 | 223 | 2.0 | 10.0 | 0.00 | 0.00 | 0.00 | 100 | 959.4 |
| 20260904065842 | 64 | 223 | 2.0 | 10.0 | 0.00 | 0.00 | 0.00 | 100 | 959.4 |
| 20260904065740 | 65 | 232 | 2.0 | 10.0 | 0.00 | 0.00 | 0.00 | 100 | 959.3 |
| 20260904065537 | 64 | 227 | 2.0 | 8.0 | 0.00 | 0.00 | 0.00 | 100 | 959.3 |
| 20260904065335 | 64 | 227 | 2.0 | 9.0 | 0.00 | 0.00 | 0.00 | 100 | 959.2 |
| 20260904065234 | 64 | 235 | 2.0 | 9.0 | 0.00 | 0.00 | 0.00 | 100 | 959.2 |
| 20260904065131 | 63 | 234 | 2.0 | 9.0 | 0.00 | 0.00 | 0.00 | 100 | 959.2 |
| 20260904064928 | 63 | 234 | 2.0 | 7.0 | 0.00 | 0.00 | 0.00 | 100 | 959.2 |
| 20260904064726 | 63 | 0 | 2.0 | 8.0 | 0.00 | 0.00 | 0.00 | 100 | 959.3 |
| 20260904064625 | 63 | 227 | 2.0 | 10.0 | 0.00 | 0.00 | 0.00 | 100 | 959.3 |
| 20260904064522 | 63 | 222 | 2.0 | 10.0 | 0.00 | 0.00 | 0.00 | 100 | 959.2 |
| 20260904064319 | 63 | 238 | 2.0 | 10.0 | 0.00 | 0.00 | 0.00 | 100 | 959.3 |
| 20260904064116 | 63 | 0 | 1.0 | 6.0 | 0.00 | 0.00 | 0.00 | 100 | 959.4 |
| 20260904064015 | 63 | 0 | 1.0 | 6.0 | 0.00 | 0.00 | 0.00 | 100 | 959.4 |
| 20260904063913 | 62 | 224 | 2.0 | 10.0 | 0.00 | 0.00 | 0.00 | 100 | 959.5 |
| 20260904063709 | 62 | 221 | 2.0 | 10.0 | 0.00 | 0.00 | 0.00 | 100 | 959.4 |
| 20260904063507 | 62 | 214 | 2.0 | 8.0 | 0.00 | 0.00 | 0.00 | 100 | 959.5 |
| 20260904063407 | 62 | 218 | 2.0 | 7.0 | 0.00 | 0.00 | 0.00 | 100 | 959.6 |
| 20260904063304 | 62 | 220 | 2.0 | 7.0 | 0.00 | 0.00 | 0.00 | 100 | 959.5 |
| 20260904063101 | 62 | 223 | 2.0 | 7.0 | 0.00 | 0.00 | 0.00 | 100 | 959.3 |
| 20260904062859 | 63 | 224 | 2.0 | 7.0 | 0.00 | 0.00 | 0.00 | 100 | 959.3 |
| 20260904062758 | 63 | 227 | 2.0 | 7.0 | 0.00 | 0.00 | 0.00 | 100 | 959.4 |
| 20260904062655 | 63 | 227 | 2.0 | 7.0 | 0.00 | 0.00 | 0.00 | 100 | 959.3 |
| 20260904062451 | 63 | 217 | 2.0 | 7.0 | 0.00 | 0.00 | 0.00 | 100 | 959.2 |
| 20260904062248 | 63 | 223 | 2.0 | 12.0 | 0.00 | 0.00 | 0.00 | 100 | 959.3 |
| 20260904062148 | 63 | 231 | 2.0 | 12.0 | 0.00 | 0.00 | 0.00 | 100 | 959.2 |
| 20260904062045 | 63 | 229 | 2.0 | 12.0 | 0.00 | 0.00 | 0.00 | 100 | 959.3 |
| 20260904061843 | 63 | 211 | 2.0 | 8.0 | 0.00 | 0.00 | 0.00 | 100 | 959.2 |
| 20260904061639 | 63 | 211 | 2.0 | 8.0 | 0.00 | 0.00 | 0.00 | 100 | 959.1 |
| 20260904061539 | 63 | 212 | 2.0 | 8.0 | 0.00 | 0.00 | 0.00 | 100 | 959.1 |
| 20260904061437 | 63 | 209 | 2.0 | 11.0 | 0.00 | 0.00 | 0.00 | 100 | 959.1 |
| 20260904061233 | 63 | 215 | 2.0 | 11.0 | 0.00 | 0.00 | 0.00 | 100 | 959.1 |
| 20260904061029 | 63 | 219 | 2.0 | 9.0 | 0.00 | 0.00 | 0.00 | 100 | 959.1 |
| 20260904060929 | 63 | 214 | 2.0 | 9.0 | 0.00 | 0.00 | 0.00 | 100 | 959.0 |
| 20260904060827 | 63 | 217 | 2.0 | 9.0 | 0.00 | 0.00 | 0.00 | 100 | 959.0 |
| 20260904060624 | 63 | 214 | 2.0 | 7.0 | 0.00 | 0.00 | 0.00 | 100 | 959.1 |
| 20260904060421 | 63 | 230 | 2.0 | 9.0 | 0.00 | 0.00 | 0.00 | 100 | 959.0 |
| 20260904060320 | 62 | 233 | 2.0 | 9.0 | 0.00 | 0.00 | 0.00 | 100 | 959.2 |
| 20260904060217 | 62 | 238 | 2.0 | 9.0 | 0.00 | 0.00 | 0.00 | 100 | 959.2 |
| 20260904060015 | 63 | 224 | 2.0 | 8.0 | 0.00 | 0.00 | 0.00 | 100 | 959.1 |
| 20260904055811 | 62 | 221 | 1.0 | 8.0 | 0.00 | 0.00 | 0.00 | 100 | 959.2 |
| 20260904055710 | 62 | 0 | 1.0 | 7.0 | 0.00 | 0.00 | 0.00 | 100 | 959.2 |
| 20260904055608 | 62 | 207 | 1.0 | 7.0 | 0.00 | 0.00 | 0.00 | 100 | 959.2 |
| 20260904055404 | 62 | 219 | 2.0 | 8.0 | 0.00 | 0.00 | 0.00 | 100 | 959.1 |
| 20260904055201 | 62 | 228 | 2.0 | 8.0 | 0.00 | 0.00 | 0.00 | 100 | 959.2 |
| 20260904055101 | 62 | 220 | 2.0 | 8.0 | 0.00 | 0.00 | 0.00 | 100 | 959.3 |
| 20260904054958 | 62 | 230 | 2.0 | 7.0 | 0.00 | 0.00 | 0.00 | 100 | 959.3 |
| 20260904054755 | 62 | 239 | 2.0 | 12.0 | 0.00 | 0.00 | 0.00 | 100 | 959.3 |
| 20260904054552 | 62 | 230 | 2.0 | 12.0 | 0.00 | 0.00 | 0.00 | 100 | 959.2 |
| 20260904054451 | 62 | 229 | 2.0 | 12.0 | 0.00 | 0.00 | 0.00 | 100 | 959.1 |
| 20260904054349 | 62 | 224 | 2.0 | 9.0 | 0.00 | 0.00 | 0.00 | 100 | 959.2 |
| 20260904054146 | 62 | 0 | 2.0 | 9.0 | 0.00 | 0.00 | 0.00 | 100 | 959.4 |
| 20260904053943 | 62 | 0 | 2.0 | 8.0 | 0.00 | 0.00 | 0.00 | 100 | 959.4 |
| 20260904053842 | 62 | 0 | 2.0 | 8.0 | 0.00 | 0.00 | 0.00 | 100 | 959.4 |
| 20260904053740 | 62 | 226 | 1.0 | 8.0 | 0.00 | 0.00 | 0.00 | 100 | 959.4 |
| 20260904053537 | 62 | 0 | 1.0 | 8.0 | 0.00 | 0.00 | 0.00 | 100 | 959.4 |
| 20260904053333 | 62 | 0 | 2.0 | 9.0 | 0.00 | 0.00 | 0.00 | 100 | 959.4 |
| 20260904053233 | 62 | 225 | 2.0 | 9.0 | 0.00 | 0.00 | 0.00 | 100 | 959.3 |
| 20260904053130 | 61 | 223 | 2.0 | 9.0 | 0.00 | 0.00 | 0.00 | 100 | 959.4 |
| 20260904052927 | 61 | 206 | 1.0 | 8.0 | 0.00 | 0.00 | 0.00 | 100 | 959.3 |
| 20260904052724 | 61 | 207 | 1.0 | 9.0 | 0.00 | 0.00 | 0.00 | 100 | 959.4 |
| 20260904052622 | 61 | 209 | 2.0 | 9.0 | 0.00 | 0.00 | 0.00 | 100 | 959.3 |
| 20260904052520 | 61 | 212 | 2.0 | 9.0 | 0.00 | 0.00 | 0.00 | 100 | 959.3 |
| 20260904052317 | 61 | 207 | 2.0 | 6.0 | 0.00 | 0.00 | 0.00 | 100 | 959.4 |
| 20260904052114 | 61 | 205 | 2.0 | 7.0 | 0.00 | 0.00 | 0.00 | 100 | 959.3 |
| 20260904052013 | 61 | 213 | 2.0 | 7.0 | 0.00 | 0.00 | 0.00 | 100 | 959.2 |
| 20260904051911 | 61 | 216 | 2.0 | 6.0 | 0.00 | 0.00 | 0.00 | 100 | 959.3 |
| 20260904051708 | 61 | 230 | 2.0 | 7.0 | 0.00 | 0.00 | 0.00 | 100 | 959.4 |
| 20260904051505 | 61 | 228 | 1.0 | 7.0 | 0.00 | 0.00 | 0.00 | 100 | 959.3 |
| 20260904051404 | 61 | 215 | 1.0 | 7.0 | 0.00 | 0.00 | 0.00 | 100 | 959.3 |
| 20260904051302 | 61 | 212 | 1.0 | 7.0 | 0.00 | 0.00 | 0.00 | 100 | 959.3 |
| 20260904051059 | 61 | 222 | 2.0 | 11.0 | 0.00 | 0.00 | 0.00 | 100 | 959.1 |
| 20260904050857 | 61 | 228 | 2.0 | 11.0 | 0.00 | 0.00 | 0.00 | 100 | 959.2 |
| 20260904050756 | 61 | 219 | 1.0 | 11.0 | 0.00 | 0.00 | 0.00 | 100 | 959.2 |
| 20260904050641 | 61 | 0 | 1.0 | 7.0 | 0.00 | 0.00 | 0.00 | 100 | 959.2 |
| 20260904050437 | 61 | 0 | 1.0 | 7.0 | 0.00 | 0.00 | 0.00 | 100 | 959.3 |
| 20260904050233 | 61 | 211 | 1.0 | 7.0 | 0.00 | 0.00 | 0.00 | 100 | 959.2 |
| 20260904050133 | 61 | 219 | 1.0 | 6.0 | 0.00 | 0.00 | 0.00 | 100 | 959.2 |
| 20260904050031 | 61 | 215 | 1.0 | 6.0 | 0.00 | 0.00 | 0.00 | 100 | 959.2 |
| 20260904045827 | 61 | 216 | 2.0 | 7.0 | 0.00 | 0.00 | 0.00 | 100 | 959.2 |
| 20260904045624 | 61 | 212 | 2.0 | 8.0 | 0.00 | 0.00 | 0.00 | 100 | 959.2 |
| 20260904045524 | 61 | 211 | 2.0 | 8.0 | 0.00 | 0.00 | 0.00 | 100 | 959.3 |
| 20260904045422 | 61 | 205 | 2.0 | 8.0 | 0.00 | 0.00 | 0.00 | 100 | 959.2 |
| 20260904045219 | 61 | 207 | 2.0 | 8.0 | 0.00 | 0.00 | 0.00 | 100 | 959.2 |
| 20260904045016 | 60 | 214 | 2.0 | 9.0 | 0.00 | 0.00 | 0.00 | 100 | 959.2 |
| 20260904044915 | 60 | 213 | 2.0 | 9.0 | 0.00 | 0.00 | 0.00 | 100 | 959.2 |
| 20260904044813 | 60 | 214 | 2.0 | 9.0 | 0.00 | 0.00 | 0.00 | 100 | 959.2 |
| 20260904044610 | 60 | 214 | 1.0 | 6.0 | 0.00 | 0.00 | 0.00 | 100 | 959.1 |
| 20260904044406 | 60 | 214 | 1.0 | 6.0 | 0.00 | 0.00 | 0.00 | 100 | 959.1 |
| 20260904044306 | 60 | 218 | 1.0 | 6.0 | 0.00 | 0.00 | 0.00 | 100 | 959.1 |
| 20260904044203 | 60 | 220 | 2.0 | 7.0 | 0.00 | 0.00 | 0.00 | 100 | 959.1 |
| 20260904044000 | 60 | 213 | 2.0 | 7.0 | 0.00 | 0.00 | 0.00 | 100 | 959.1 |
| 20260904043758 | 60 | 219 | 2.0 | 5.0 | 0.00 | 0.00 | 0.00 | 100 | 959.0 |
| 20260904043657 | 60 | 228 | 1.0 | 7.0 | 0.00 | 0.00 | 0.00 | 100 | 959.0 |
| 20260904043554 | 60 | 232 | 1.0 | 7.0 | 0.00 | 0.00 | 0.00 | 100 | 959.0 |
| 20260904043351 | 60 | 216 | 1.0 | 8.0 | 0.00 | 0.00 | 0.00 | 100 | 959.0 |
| 20260904043148 | 60 | 217 | 2.0 | 9.0 | 0.00 | 0.00 | 0.00 | 100 | 959.1 |
| 20260904042945 | 61 | 219 | 2.0 | 9.0 | 0.00 | 0.00 | 0.00 | 100 | 959.0 |
| 20260904042742 | 61 | 225 | 3.0 | 14.0 | 0.00 | 0.00 | 0.00 | 100 | 959.0 |
| 20260904042538 | 61 | 247 | 4.0 | 14.0 | 0.00 | 0.00 | 0.00 | 100 | 959.1 |
| 20260904042437 | 61 | 256 | 4.0 | 14.0 | 0.00 | 0.00 | 0.00 | 100 | 959.0 |
| 20260904042335 | 61 | 258 | 5.0 | 10.0 | 0.00 | 0.00 | 0.00 | 100 | 959.0 |
| 20260904042131 | 61 | 255 | 5.0 | 14.0 | 0.00 | 0.00 | 0.00 | 100 | 959.2 |
| 20260904041928 | 61 | 255 | 6.0 | 14.0 | 0.00 | 0.00 | 0.00 | 100 | 959.2 |
| 20260904041828 | 61 | 251 | 6.0 | 16.0 | 0.00 | 0.00 | 0.00 | 100 | 959.2 |
| 20260904041725 | 61 | 253 | 5.0 | 16.0 | 0.00 | 0.00 | 0.00 | 100 | 959.2 |
| 20260904041522 | 61 | 251 | 4.0 | 16.0 | 0.00 | 0.00 | 0.00 | 100 | 959.3 |
| 20260904041318 | 61 | 254 | 4.0 | 14.0 | 0.00 | 0.00 | 0.00 | 100 | 959.3 |
| 20260904041116 | 61 | 259 | 6.0 | 16.0 | 0.00 | 0.00 | 0.00 | 100 | 959.3 |
| 20260904040913 | 61 | 258 | 7.0 | 16.0 | 0.00 | 0.00 | 0.00 | 100 | 959.2 |
| 20260904040709 | 61 | 253 | 7.0 | 14.0 | 0.00 | 0.00 | 0.00 | 100 | 959.4 |
| 20260904040609 | 61 | 254 | 6.0 | 12.0 | 0.00 | 0.00 | 0.00 | 100 | 959.3 |
| 20260904040507 | 61 | 253 | 5.0 | 12.0 | 0.00 | 0.00 | 0.00 | 100 | 959.3 |
| 20260904040304 | 61 | 255 | 4.0 | 11.0 | 0.00 | 0.00 | 0.00 | 100 | 959.2 |
| 20260904040101 | 61 | 253 | 3.0 | 10.0 | 0.00 | 0.00 | 0.00 | 100 | 959.2 |
| 20260904040000 | 61 | 252 | 4.0 | 11.0 | 0.00 | 0.00 | 0.00 | 100 | 959.2 |
| 20260904035857 | 61 | 250 | 4.0 | 11.0 | 0.00 | 0.00 | 0.00 | 100 | 959.1 |
| 20260904035654 | 61 | 251 | 5.0 | 11.0 | 0.00 | 0.00 | 0.00 | 100 | 959.0 |
| 20260904035451 | 61 | 251 | 4.0 | 10.0 | 0.00 | 0.00 | 0.00 | 100 | 959.0 |
| 20260904035350 | 61 | 252 | 4.0 | 10.0 | 0.00 | 0.00 | 0.00 | 100 | 959.1 |
| 20260904035248 | 61 | 256 | 4.0 | 12.0 | 0.00 | 0.00 | 0.00 | 100 | 959.1 |
| 20260904035044 | 62 | 252 | 4.0 | 12.0 | 0.00 | 0.00 | 0.00 | 100 | 959.2 |
| 20260904034843 | 62 | 253 | 5.0 | 11.0 | 0.00 | 0.00 | 0.00 | 100 | 959.2 |
| 20260904034742 | 61 | 258 | 5.0 | 11.0 | 0.00 | 0.00 | 0.00 | 100 | 959.2 |
| 20260904034639 | 62 | 258 | 4.0 | 13.0 | 0.00 | 0.00 | 0.00 | 100 | 959.2 |
| 20260904034436 | 62 | 263 | 5.0 | 16.0 | 0.00 | 0.00 | 0.00 | 100 | 959.2 |
| 20260904034233 | 62 | 265 | 7.0 | 16.0 | 0.00 | 0.00 | 0.00 | 100 | 959.2 |
| 20260904034132 | 62 | 263 | 7.0 | 16.0 | 0.00 | 0.00 | 0.00 | 100 | 959.2 |
| 20260904034030 | 62 | 258 | 7.0 | 16.0 | 0.00 | 0.00 | 0.00 | 100 | 959.2 |
| 20260904033826 | 62 | 252 | 5.0 | 16.0 | 0.00 | 0.00 | 0.00 | 100 | 959.2 |
| 20260904033623 | 62 | 251 | 6.0 | 16.0 | 0.00 | 0.00 | 0.00 | 100 | 959.1 |
| 20260904033522 | 62 | 256 | 6.0 | 16.0 | 0.00 | 0.00 | 0.00 | 100 | 959.1 |
| 20260904033421 | 62 | 256 | 6.0 | 14.0 | 0.00 | 0.00 | 0.00 | 100 | 959.2 |
| 20260904033217 | 62 | 254 | 7.0 | 21.0 | 0.00 | 0.00 | 0.00 | 100 | 959.2 |
| 20260904033015 | 62 | 248 | 5.0 | 21.0 | 0.00 | 0.00 | 0.00 | 100 | 959.0 |
| 20260904032914 | 62 | 241 | 5.0 | 21.0 | 0.00 | 0.00 | 0.00 | 100 | 959.1 |
| 20260904032811 | 62 | 243 | 4.0 | 13.0 | 0.00 | 0.00 | 0.00 | 100 | 959.0 |
| 20260904032608 | 61 | 249 | 4.0 | 13.0 | 0.00 | 0.00 | 0.00 | 100 | 959.0 |
| 20260904032404 | 62 | 257 | 4.0 | 13.0 | 0.00 | 0.00 | 0.00 | 100 | 959.0 |
| 20260904032305 | 62 | 256 | 4.0 | 12.0 | 0.00 | 0.00 | 0.00 | 100 | 959.0 |
| 20260904032201 | 62 | 256 | 4.0 | 12.0 | 0.00 | 0.00 | 0.00 | 100 | 959.1 |
| 20260904031958 | 62 | 259 | 5.0 | 16.0 | 0.00 | 0.00 | 0.00 | 100 | 959.0 |
| 20260904031755 | 62 | 262 | 7.0 | 16.0 | 0.00 | 0.00 | 0.00 | 100 | 959.1 |
| 20260904031551 | 62 | 260 | 6.0 | 15.0 | 0.00 | 0.00 | 0.00 | 100 | 959.1 |
| 20260904031348 | 61 | 259 | 5.0 | 11.0 | 0.00 | 0.00 | 0.00 | 100 | 959.1 |
| 20260904031144 | 61 | 260 | 5.0 | 11.0 | 0.00 | 0.00 | 0.00 | 100 | 959.2 |
| 20260904031043 | 61 | 257 | 2.0 | 11.0 | 0.00 | 0.00 | 0.00 | 100 | 959.2 |
| 20260904030941 | 61 | 257 | 2.0 | 9.0 | 0.00 | 0.00 | 0.00 | 100 | 959.2 |
| 20260904030738 | 61 | 217 | 1.0 | 6.0 | 0.00 | 0.00 | 0.00 | 100 | 959.2 |
| 20260904030535 | 61 | 248 | 3.0 | 8.0 | 0.00 | 0.00 | 0.00 | 100 | 959.1 |
| 20260904030434 | 61 | 253 | 3.0 | 8.0 | 0.00 | 0.00 | 0.00 | 100 | 959.1 |
| 20260904030331 | 61 | 250 | 3.0 | 8.0 | 0.00 | 0.00 | 0.00 | 100 | 959.1 |
| 20260904030128 | 61 | 221 | 2.0 | 7.0 | 0.00 | 0.00 | 0.00 | 100 | 959.1 |
| 20260904025925 | 61 | 257 | 5.0 | 15.0 | 0.00 | 0.00 | 0.00 | 100 | 959.1 |
| 20260904025721 | 62 | 267 | 6.0 | 15.0 | 0.00 | 0.00 | 0.00 | 100 | 959.3 |
| 20260904025518 | 62 | 264 | 5.0 | 10.0 | 0.00 | 0.00 | 0.00 | 100 | 959.2 |
| 20260904025316 | 62 | 264 | 4.0 | 10.0 | 0.00 | 0.00 | 0.00 | 100 | 959.2 |
| 20260904025215 | 61 | 269 | 4.0 | 10.0 | 0.00 | 0.00 | 0.00 | 100 | 959.2 |
| 20260904025112 | 61 | 265 | 4.0 | 10.0 | 0.00 | 0.00 | 0.00 | 100 | 959.2 |
| 20260904024908 | 61 | 263 | 4.0 | 11.0 | 0.00 | 0.00 | 0.00 | 100 | 959.1 |
| 20260904024705 | 61 | 260 | 3.0 | 10.0 | 0.00 | 0.00 | 0.00 | 100 | 959.2 |
| 20260904024604 | 60 | 250 | 2.0 | 9.0 | 0.00 | 0.00 | 0.00 | 100 | 959.1 |
| 20260904024502 | 61 | 243 | 1.0 | 7.0 | 0.00 | 0.00 | 0.00 | 100 | 959.2 |
| 20260904024259 | 61 | 247 | 2.0 | 8.0 | 0.00 | 0.00 | 0.00 | 100 | 959.3 |
| 20260904024055 | 61 | 254 | 4.0 | 11.0 | 0.00 | 0.00 | 0.00 | 100 | 959.2 |
| 20260904023954 | 61 | 252 | 4.0 | 11.0 | 0.00 | 0.00 | 0.00 | 100 | 959.3 |
| 20260904023852 | 60 | 252 | 3.0 | 11.0 | 0.00 | 0.00 | 0.00 | 100 | 959.2 |
| 20260904023649 | 60 | 244 | 3.0 | 9.0 | 0.00 | 0.00 | 0.00 | 100 | 959.2 |
| 20260904023445 | 60 | 239 | 3.0 | 9.0 | 0.00 | 0.00 | 0.00 | 100 | 959.1 |
| 20260904023345 | 60 | 233 | 2.0 | 5.0 | 0.00 | 0.00 | 0.00 | 100 | 959.2 |
| 20260904023243 | 60 | 237 | 2.0 | 13.0 | 0.00 | 0.00 | 0.00 | 100 | 959.0 |
| 20260904023040 | 60 | 234 | 2.0 | 13.0 | 0.00 | 0.00 | 0.00 | 100 | 959.2 |
| 20260904022836 | 60 | 249 | 2.0 | 7.0 | 0.00 | 0.00 | 0.00 | 100 | 959.1 |
| 20260904022722 | 60 | 256 | 1.0 | 7.0 | 0.00 | 0.00 | 0.00 | 100 | 959.0 |
| 20260904022620 | 59 | 0 | 1.0 | 4.0 | 0.00 | 0.00 | 0.00 | 100 | 959.0 |
| 20260904022417 | 59 | 0 | 1.0 | 6.0 | 0.00 | 0.00 | 0.00 | 100 | 959.1 |
| 20260904022214 | 59 | 0 | 1.0 | 6.0 | 0.00 | 0.00 | 0.00 | 100 | 959.1 |
| 20260904022010 | 59 | 0 | 1.0 | 4.0 | 0.00 | 0.00 | 0.00 | 100 | 959.0 |
| 20260904021807 | 59 | 0 | 0.0 | 4.0 | 0.00 | 0.00 | 0.00 | 100 | 959.1 |
| 20260904021604 | 59 | 0 | 1.0 | 4.0 | 0.00 | 0.00 | 0.00 | 100 | 958.9 |
| 20260904021503 | 60 | 0 | 1.0 | 4.0 | 0.00 | 0.00 | 0.00 | 100 | 958.9 |
| 20260904021400 | 60 | 0 | 1.0 | 4.0 | 0.00 | 0.00 | 0.00 | 100 | 959.0 |
| 20260904021157 | 60 | 236 | 2.0 | 10.0 | 0.00 | 0.00 | 0.00 | 100 | 959.0 |
| 20260904020954 | 60 | 237 | 2.0 | 10.0 | 0.00 | 0.00 | 0.00 | 100 | 958.9 |
| 20260904020853 | 60 | 235 | 2.0 | 10.0 | 0.00 | 0.00 | 0.00 | 100 | 958.9 |
| 20260904020751 | 60 | 231 | 2.0 | 8.0 | 0.00 | 0.00 | 0.00 | 100 | 958.8 |
| 20260904020547 | 60 | 225 | 2.0 | 8.0 | 0.00 | 0.00 | 0.00 | 100 | 959.0 |
| 20260904020344 | 60 | 223 | 2.0 | 8.0 | 0.00 | 0.00 | 0.00 | 100 | 959.0 |
| 20260904020243 | 60 | 227 | 2.0 | 8.0 | 0.00 | 0.00 | 0.00 | 100 | 959.0 |
| 20260904020141 | 60 | 230 | 2.0 | 9.0 | 0.00 | 0.00 | 0.00 | 100 | 959.0 |
| 20260904015938 | 61 | 233 | 2.0 | 9.0 | 0.00 | 0.00 | 0.00 | 100 | 959.0 |
| 20260904015735 | 61 | 227 | 2.0 | 9.0 | 0.00 | 0.00 | 0.00 | 100 | 959.0 |
| 20260904015634 | 61 | 234 | 2.0 | 9.0 | 0.00 | 0.00 | 0.00 | 100 | 959.0 |
| 20260904015531 | 61 | 233 | 2.0 | 9.0 | 0.00 | 0.00 | 0.00 | 100 | 959.0 |
| 20260904015328 | 61 | 230 | 2.0 | 10.0 | 0.00 | 0.00 | 0.00 | 100 | 959.0 |
| 20260904015125 | 61 | 220 | 2.0 | 10.0 | 0.00 | 0.00 | 0.00 | 100 | 959.0 |
| 20260904015024 | 61 | 219 | 2.0 | 10.0 | 0.00 | 0.00 | 0.00 | 100 | 959.1 |
| 20260904014922 | 61 | 215 | 2.0 | 10.0 | 0.00 | 0.00 | 0.00 | 100 | 959.1 |
| 20260904014719 | 61 | 221 | 2.0 | 10.0 | 0.00 | 0.00 | 0.00 | 100 | 959.1 |
| 20260904014516 | 62 | 237 | 3.0 | 12.0 | 0.00 | 0.00 | 0.00 | 100 | 959.0 |
| 20260904014414 | 62 | 244 | 4.0 | 12.0 | 0.00 | 0.00 | 0.00 | 100 | 959.1 |
| 20260904014313 | 62 | 246 | 5.0 | 15.0 | 0.00 | 0.00 | 0.00 | 100 | 959.1 |
| 20260904014109 | 62 | 247 | 5.0 | 15.0 | 0.00 | 0.00 | 0.00 | 100 | 959.2 |
| 20260904013906 | 61 | 241 | 3.0 | 12.0 | 0.00 | 0.00 | 0.00 | 100 | 959.2 |
| 20260904013806 | 61 | 241 | 3.0 | 10.0 | 0.00 | 0.00 | 0.00 | 100 | 959.1 |
| 20260904013703 | 61 | 234 | 3.0 | 10.0 | 0.00 | 0.00 | 0.00 | 100 | 959.1 |
| 20260904013459 | 60 | 259 | 3.0 | 14.0 | 0.00 | 0.00 | 0.00 | 100 | 959.1 |
| 20260904013257 | 59 | 283 | 4.0 | 11.0 | 0.00 | 0.00 | 0.00 | 100 | 959.1 |
| 20260904013156 | 59 | 301 | 3.0 | 11.0 | 0.00 | 0.00 | 0.00 | 100 | 959.1 |
| 20260904013054 | 58 | 304 | 3.0 | 11.0 | 0.00 | 0.00 | 0.00 | 100 | 959.1 |
| 20260904012851 | 58 | 326 | 2.0 | 6.0 | 0.00 | 0.00 | 0.00 | 100 | 959.1 |
| 20260904012647 | 59 | 299 | 4.0 | 8.0 | 0.00 | 0.00 | 0.00 | 100 | 959.1 |
| 20260904012546 | 61 | 291 | 5.0 | 9.0 | 0.00 | 0.00 | 0.00 | 100 | 959.1 |
| 20260904012444 | 62 | 274 | 5.0 | 9.0 | 0.00 | 0.00 | 0.00 | 100 | 959.1 |
| 20260904012241 | 62 | 267 | 6.0 | 11.0 | 0.00 | 0.00 | 0.00 | 100 | 959.0 |
| 20260904012039 | 62 | 260 | 5.0 | 12.0 | 0.00 | 0.00 | 0.00 | 100 | 959.1 |
| 20260904011938 | 62 | 255 | 5.0 | 12.0 | 0.00 | 0.00 | 0.00 | 100 | 959.1 |
| 20260904011836 | 62 | 253 | 5.0 | 12.0 | 0.00 | 0.00 | 0.00 | 100 | 958.9 |
| 20260904011632 | 62 | 236 | 3.0 | 13.0 | 0.00 | 0.00 | 0.00 | 100 | 959.0 |
| 20260904011429 | 62 | 233 | 2.0 | 13.0 | 0.00 | 0.00 | 0.00 | 100 | 959.0 |
| 20260904011328 | 62 | 239 | 3.0 | 16.0 | 0.00 | 0.00 | 0.00 | 100 | 959.0 |
| 20260904011225 | 62 | 240 | 3.0 | 16.0 | 0.00 | 0.00 | 0.00 | 100 | 959.0 |
| 20260904011022 | 62 | 226 | 2.0 | 16.0 | 0.00 | 0.00 | 0.00 | 100 | 958.9 |
| 20260904010819 | 62 | 201 | 2.0 | 8.0 | 0.00 | 0.00 | 0.00 | 100 | 958.9 |
| 20260904010718 | 62 | 213 | 2.0 | 9.0 | 0.00 | 0.00 | 0.00 | 100 | 958.9 |
| 20260904010616 | 62 | 216 | 3.0 | 9.0 | 0.00 | 0.00 | 0.00 | 100 | 959.0 |
| 20260904010413 | 62 | 222 | 3.0 | 10.0 | 0.00 | 0.00 | 0.00 | 100 | 959.1 |
| 20260904010211 | 61 | 222 | 2.0 | 10.0 | 0.00 | 0.00 | 0.00 | 100 | 959.1 |
| 20260904010110 | 61 | 231 | 1.0 | 9.0 | 0.00 | 0.00 | 0.00 | 100 | 959.2 |
| 20260904010007 | 61 | 0 | 1.0 | 6.0 | 0.00 | 0.00 | 0.00 | 100 | 959.2 |
| 20260904005804 | 61 | 257 | 1.0 | 6.0 | 0.00 | 0.00 | 0.00 | 100 | 959.1 |
| 20260904005601 | 61 | 0 | 1.0 | 5.0 | 0.00 | 0.00 | 0.00 | 100 | 959.2 |
| 20260904005500 | 61 | 235 | 1.0 | 5.0 | 0.00 | 0.00 | 0.00 | 100 | 959.1 |
| 20260904005357 | 61 | 0 | 1.0 | 5.0 | 0.00 | 0.00 | 0.00 | 100 | 959.2 |
| 20260904005154 | 62 | 237 | 1.0 | 5.0 | 0.00 | 0.00 | 0.00 | 100 | 959.2 |
| 20260904004951 | 62 | 240 | 2.0 | 12.0 | 0.00 | 0.00 | 0.00 | 100 | 959.3 |
| 20260904004748 | 62 | 235 | 3.0 | 12.0 | 0.00 | 0.00 | 0.00 | 100 | 959.1 |
| 20260904004545 | 62 | 225 | 2.0 | 9.0 | 0.00 | 0.00 | 0.00 | 100 | 959.1 |
| 20260904004342 | 62 | 239 | 2.0 | 9.0 | 0.00 | 0.00 | 0.00 | 100 | 959.2 |
| 20260904004242 | 62 | 239 | 2.0 | 9.0 | 0.00 | 0.00 | 0.00 | 100 | 959.3 |
| 20260904004139 | 62 | 238 | 2.0 | 9.0 | 0.00 | 0.00 | 0.00 | 100 | 959.3 |
| 20260904003936 | 62 | 243 | 2.0 | 9.0 | 0.00 | 0.00 | 0.00 | 100 | 959.3 |
| 20260904003733 | 62 | 252 | 2.0 | 7.0 | 0.00 | 0.00 | 0.00 | 100 | 959.3 |
| 20260904003632 | 62 | 251 | 2.0 | 5.0 | 0.00 | 0.00 | 0.00 | 100 | 959.3 |
| 20260904003529 | 62 | 250 | 2.0 | 5.0 | 0.00 | 0.00 | 0.00 | 100 | 959.4 |
| 20260904003326 | 62 | 247 | 2.0 | 8.0 | 0.00 | 0.00 | 0.00 | 100 | 959.4 |
| 20260904003124 | 62 | 245 | 2.0 | 8.0 | 0.00 | 0.00 | 0.00 | 100 | 959.4 |
| 20260904003023 | 62 | 241 | 2.0 | 8.0 | 0.00 | 0.00 | 0.00 | 100 | 959.4 |
| 20260904002921 | 62 | 225 | 2.0 | 7.0 | 0.00 | 0.00 | 0.00 | 100 | 959.4 |
| 20260904002718 | 62 | 221 | 1.0 | 7.0 | 0.00 | 0.00 | 0.00 | 100 | 959.4 |
| 20260904002515 | 62 | 230 | 1.0 | 7.0 | 0.00 | 0.00 | 0.00 | 100 | 959.4 |
| 20260904002414 | 62 | 230 | 1.0 | 7.0 | 0.00 | 0.00 | 0.00 | 100 | 959.4 |
| 20260904002312 | 62 | 0 | 1.0 | 5.0 | 0.00 | 0.00 | 0.00 | 100 | 959.3 |
| 20260904002108 | 62 | 0 | 1.0 | 5.0 | 0.00 | 0.00 | 0.00 | 100 | 959.2 |
| 20260904001905 | 62 | 219 | 1.0 | 8.0 | 0.00 | 0.00 | 0.00 | 100 | 959.3 |
| 20260904001805 | 62 | 222 | 1.0 | 8.0 | 0.00 | 0.00 | 0.00 | 100 | 959.3 |
| 20260904001702 | 62 | 221 | 1.0 | 8.0 | 0.00 | 0.00 | 0.00 | 100 | 959.4 |
| 20260904001459 | 63 | 0 | 1.0 | 5.0 | 0.00 | 0.00 | 0.00 | 100 | 959.4 |
| 20260904001256 | 63 | 220 | 1.0 | 5.0 | 0.00 | 0.00 | 0.00 | 100 | 959.4 |
| 20260904001155 | 63 | 227 | 1.0 | 5.0 | 0.00 | 0.00 | 0.00 | 100 | 959.4 |
| 20260904001053 | 63 | 236 | 1.0 | 5.0 | 0.00 | 0.00 | 0.00 | 100 | 959.4 |
| 20260904000851 | 63 | 243 | 1.0 | 5.0 | 0.00 | 0.00 | 0.00 | 100 | 959.5 |
| 20260904000647 | 63 | 237 | 1.0 | 5.0 | 0.00 | 0.00 | 0.00 | 100 | 959.5 |
| 20260904000547 | 63 | 235 | 2.0 | 6.0 | 0.00 | 0.00 | 0.00 | 100 | 959.5 |
| 20260904000444 | 63 | 238 | 2.0 | 6.0 | 0.00 | 0.00 | 0.00 | 100 | 959.5 |
| 20260904000241 | 63 | 241 | 2.0 | 11.0 | 0.00 | 0.00 | 0.00 | 100 | 959.5 |
| 20260904000038 | 64 | 248 | 3.0 | 12.0 | 0.00 | 0.00 | 0.00 | 100 | 959.5 |
| 20260903235937 | 64 | 245 | 3.0 | 12.0 | 0.00 | 0.00 | 0.00 | 100 | 959.5 |
| 20260903235741 | 64 | 249 | 3.0 | 9.0 | 0.00 | 0.00 | 0.00 | 100 | 959.4 |
| 20260903235537 | 64 | 248 | 4.0 | 9.0 | 0.00 | 0.00 | 0.00 | 100 | 959.5 |
| 20260903235438 | 64 | 248 | 4.0 | 10.0 | 0.00 | 0.00 | 0.00 | 100 | 959.4 |
| 20260903235334 | 64 | 247 | 4.0 | 10.0 | 0.00 | 0.00 | 0.00 | 100 | 959.5 |
| 20260903235131 | 64 | 241 | 2.0 | 10.0 | 0.00 | 0.00 | 0.00 | 100 | 959.4 |
| 20260903234927 | 64 | 218 | 2.0 | 9.0 | 0.00 | 0.00 | 0.00 | 100 | 959.6 |
| 20260903234827 | 64 | 214 | 2.0 | 9.0 | 0.00 | 0.00 | 0.00 | 100 | 959.5 |
| 20260903234724 | 64 | 210 | 2.0 | 9.0 | 0.00 | 0.00 | 0.00 | 100 | 959.5 |
| 20260903234521 | 64 | 235 | 3.0 | 16.0 | 0.00 | 0.00 | 0.00 | 100 | 959.5 |
| 20260903234317 | 64 | 237 | 3.0 | 16.0 | 0.00 | 0.00 | 0.00 | 100 | 959.5 |
| 20260903234203 | 64 | 228 | 3.0 | 11.0 | 0.00 | 0.00 | 0.00 | 100 | 959.6 |
| 20260903234100 | 64 | 234 | 3.0 | 11.0 | 0.00 | 0.00 | 0.00 | 100 | 959.6 |
| 20260903233857 | 64 | 237 | 4.0 | 11.0 | 0.00 | 0.00 | 0.00 | 100 | 959.6 |
| 20260903233654 | 64 | 238 | 4.0 | 14.0 | 0.00 | 0.00 | 0.00 | 100 | 959.6 |
| 20260903233553 | 64 | 233 | 3.0 | 14.0 | 0.00 | 0.00 | 0.00 | 100 | 959.7 |
| 20260903233451 | 64 | 229 | 3.0 | 14.0 | 0.00 | 0.00 | 0.00 | 100 | 959.7 |
| 20260903233247 | 64 | 253 | 5.0 | 15.0 | 0.00 | 0.00 | 0.00 | 100 | 959.7 |
| 20260903233045 | 64 | 256 | 6.0 | 15.0 | 0.00 | 0.00 | 0.00 | 100 | 959.8 |
| 20260903232944 | 65 | 256 | 5.0 | 15.0 | 0.00 | 0.00 | 0.00 | 100 | 959.7 |
| 20260903232842 | 64 | 255 | 5.0 | 13.0 | 0.00 | 0.00 | 0.00 | 100 | 959.7 |
| 20260903232639 | 65 | 268 | 7.0 | 18.0 | 0.00 | 0.00 | 0.00 | 100 | 959.9 |
| 20260903232436 | 65 | 264 | 6.0 | 18.0 | 0.00 | 0.00 | 0.00 | 100 | 959.7 |
| 20260903232335 | 65 | 259 | 5.0 | 13.0 | 0.00 | 0.00 | 0.00 | 100 | 959.9 |
| 20260903232233 | 65 | 262 | 6.0 | 13.0 | 0.00 | 0.00 | 0.00 | 100 | 959.9 |
| 20260903232029 | 65 | 282 | 8.0 | 18.0 | 0.00 | 0.00 | 0.00 | 100 | 959.9 |
| 20260903231826 | 65 | 282 | 8.0 | 18.0 | 0.00 | 0.00 | 0.00 | 100 | 959.9 |
| 20260903231725 | 65 | 278 | 7.0 | 18.0 | 0.00 | 0.00 | 0.00 | 100 | 959.9 |
| 20260903231623 | 65 | 281 | 7.0 | 14.0 | 0.00 | 0.00 | 0.00 | 100 | 959.9 |
| 20260903231419 | 65 | 284 | 10.0 | 18.0 | 0.00 | 0.00 | 0.00 | 100 | 960.0 |
| 20260903231217 | 65 | 293 | 13.0 | 27.0 | 0.00 | 0.00 | 0.00 | 100 | 959.9 |
| 20260903231116 | 65 | 292 | 14.0 | 27.0 | 0.00 | 0.00 | 0.00 | 100 | 959.9 |
| 20260903231014 | 65 | 290 | 14.0 | 27.0 | 0.00 | 0.00 | 0.00 | 100 | 960.0 |
| 20260903230811 | 65 | 285 | 9.0 | 18.0 | 0.00 | 0.00 | 0.00 | 100 | 960.0 |
| 20260903230607 | 64 | 286 | 7.0 | 12.0 | 0.00 | 0.00 | 0.00 | 100 | 960.1 |
| 20260903230507 | 65 | 294 | 7.0 | 13.0 | 0.00 | 0.00 | 0.00 | 100 | 960.1 |
| 20260903230404 | 64 | 291 | 7.0 | 13.0 | 0.00 | 0.00 | 0.00 | 100 | 959.9 |
| 20260903230201 | 65 | 287 | 10.0 | 23.0 | 0.00 | 0.00 | 0.00 | 100 | 959.9 |
| 20260903225958 | 66 | 286 | 13.0 | 23.0 | 0.00 | 0.00 | 0.00 | 100 | 959.6 |
| 20260903225858 | 66 | 287 | 14.0 | 18.0 | 0.00 | 0.00 | 0.00 | 100 | 959.6 |
| 20260903225756 | 66 | 286 | 12.0 | 18.0 | 0.00 | 0.00 | 0.00 | 100 | 959.8 |
| 20260903225553 | 66 | 284 | 12.0 | 23.0 | 0.00 | 0.00 | 0.00 | 100 | 959.8 |
| 20260903225350 | 66 | 283 | 10.0 | 23.0 | 0.00 | 0.00 | 0.00 | 100 | 959.8 |
| 20260903225249 | 66 | 282 | 11.0 | 20.0 | 0.00 | 0.00 | 0.00 | 100 | 959.8 |
| 20260903225146 | 66 | 274 | 10.0 | 20.0 | 0.00 | 0.00 | 0.00 | 100 | 959.7 |
| 20260903224943 | 66 | 270 | 10.0 | 20.0 | 0.00 | 0.00 | 0.00 | 100 | 959.9 |
| 20260903224741 | 66 | 282 | 11.0 | 19.0 | 0.00 | 0.00 | 0.00 | 100 | 959.8 |
| 20260903224640 | 66 | 275 | 10.0 | 21.0 | 0.00 | 0.00 | 0.00 | 100 | 959.9 |
| 20260903224537 | 65 | 271 | 9.0 | 21.0 | 0.00 | 0.00 | 0.00 | 100 | 959.9 |
| 20260903224334 | 65 | 264 | 7.0 | 21.0 | 0.00 | 0.00 | 0.00 | 100 | 960.0 |
| 20260903224131 | 64 | 279 | 7.0 | 16.0 | 0.00 | 0.00 | 0.00 | 100 | 960.0 |
| 20260903224030 | 64 | 282 | 9.0 | 16.0 | 0.00 | 0.00 | 0.00 | 100 | 959.9 |
| 20260903223928 | 64 | 284 | 9.0 | 18.0 | 0.00 | 0.00 | 0.00 | 100 | 960.0 |
| 20260903223725 | 63 | 289 | 9.0 | 18.0 | 0.00 | 0.00 | 0.00 | 100 | 959.9 |
| 20260903223522 | 61 | 312 | 4.0 | 11.0 | 0.00 | 0.00 | 0.00 | 100 | 959.9 |
| 20260903223421 | 60 | 309 | 4.0 | 12.0 | 0.00 | 0.00 | 0.00 | 100 | 960.1 |
| 20260903223319 | 60 | 302 | 4.0 | 15.0 | 0.00 | 0.00 | 0.00 | 100 | 959.9 |
| 20260903223115 | 63 | 282 | 5.0 | 15.0 | 0.00 | 0.00 | 0.00 | 100 | 959.9 |
| 20260903222912 | 64 | 276 | 6.0 | 12.0 | 0.00 | 0.00 | 0.00 | 100 | 960.0 |
| 20260903222811 | 63 | 270 | 6.0 | 12.0 | 0.00 | 0.00 | 0.00 | 100 | 959.9 |
| 20260903222709 | 63 | 265 | 5.0 | 12.0 | 0.00 | 0.00 | 0.00 | 100 | 960.0 |
| 20260903222506 | 61 | 292 | 4.0 | 11.0 | 0.00 | 0.00 | 0.00 | 100 | 960.1 |
| 20260903222305 | 61 | 286 | 6.0 | 14.0 | 0.00 | 0.00 | 0.00 | 100 | 960.0 |
| 20260903222202 | 61 | 288 | 6.0 | 14.0 | 0.00 | 0.00 | 0.00 | 100 | 960.1 |
| 20260903222100 | 61 | 299 | 6.0 | 14.0 | 0.00 | 0.00 | 0.00 | 100 | 960.0 |
| 20260903221857 | 59 | 319 | 4.0 | 9.0 | 0.00 | 0.00 | 0.00 | 100 | 960.1 |
| 20260903221653 | 60 | 292 | 5.0 | 9.0 | 0.00 | 0.00 | 0.00 | 100 | 960.1 |
| 20260903221552 | 61 | 285 | 5.0 | 10.0 | 0.00 | 0.00 | 0.00 | 100 | 960.1 |
| 20260903221450 | 59 | 283 | 5.0 | 10.0 | 0.00 | 0.00 | 0.00 | 100 | 960.1 |
| 20260903221247 | 59 | 289 | 4.0 | 10.0 | 0.00 | 0.00 | 0.00 | 100 | 960.1 |
| 20260903221044 | 58 | 0 | 2.0 | 5.0 | 0.00 | 0.00 | 0.00 | 100 | 960.2 |
| 20260903220943 | 56 | 0 | 1.0 | 5.0 | 0.00 | 0.00 | 0.00 | 100 | 960.1 |
| 20260903220840 | 56 | 0 | 1.0 | 3.0 | 0.00 | 0.00 | 0.00 | 100 | 960.2 |
| 20260903220638 | 56 | 351 | 2.0 | 4.0 | 0.00 | 0.00 | 0.00 | 100 | 960.2 |
| 20260903220435 | 57 | 350 | 2.0 | 4.0 | 0.00 | 0.00 | 0.00 | 100 | 960.1 |
| 20260903220334 | 57 | 343 | 2.0 | 3.0 | 0.00 | 0.00 | 0.00 | 100 | 960.1 |
| 20260903220231 | 57 | 332 | 2.0 | 4.0 | 0.00 | 0.00 | 0.00 | 100 | 960.2 |
| 20260903220029 | 56 | 296 | 2.0 | 6.0 | 0.00 | 0.00 | 0.00 | 100 | 960.0 |
| 20260903215826 | 57 | 279 | 2.0 | 6.0 | 0.00 | 0.00 | 0.00 | 100 | 960.1 |
| 20260903215725 | 57 | 290 | 2.0 | 6.0 | 0.00 | 0.00 | 0.00 | 100 | 960.0 |
| 20260903215623 | 57 | 0 | 2.0 | 4.0 | 0.00 | 0.00 | 0.00 | 100 | 960.0 |
| 20260903215420 | 57 | 21 | 2.0 | 4.0 | 0.00 | 0.00 | 0.00 | 100 | 960.0 |
| 20260903215217 | 57 | 0 | 1.0 | 4.0 | 0.00 | 0.00 | 0.00 | 100 | 960.1 |
| 20260903215116 | 58 | 0 | 1.0 | 3.0 | 0.00 | 0.00 | 0.00 | 100 | 960.0 |
| 20260903215014 | 58 | 215 | 1.0 | 3.0 | 0.00 | 0.00 | 0.00 | 100 | 960.0 |
| 20260903214811 | 58 | 0 | 1.0 | 3.0 | 0.00 | 0.00 | 0.00 | 100 | 960.0 |
| 20260903214608 | 58 | 0 | 1.0 | 2.0 | 0.00 | 0.00 | 0.00 | 100 | 960.1 |
| 20260903214507 | 58 | 0 | 0.0 | 3.0 | 0.00 | 0.00 | 0.00 | 100 | 960.1 |
| 20260903214404 | 58 | 0 | 0.0 | 3.0 | 0.00 | 0.00 | 0.00 | 100 | 960.1 |
| 20260903214201 | 58 | 0 | 0.0 | 2.0 | 0.00 | 0.00 | 0.00 | 100 | 960.1 |
| 20260903213957 | 58 | 0 | 0.0 | 3.0 | 0.00 | 0.00 | 0.00 | 100 | 960.2 |
| 20260903213857 | 58 | 0 | 1.0 | 4.0 | 0.00 | 0.00 | 0.00 | 100 | 960.1 |
| 20260903213754 | 58 | 0 | 1.0 | 4.0 | 0.00 | 0.00 | 0.00 | 100 | 960.1 |
| 20260903213551 | 58 | 0 | 1.0 | 4.0 | 0.00 | 0.00 | 0.00 | 100 | 960.1 |
| 20260903213348 | 58 | 0 | 1.0 | 4.0 | 0.00 | 0.00 | 0.00 | 100 | 960.1 |
| 20260903213247 | 58 | 0 | 1.0 | 4.0 | 0.00 | 0.00 | 0.00 | 100 | 960.0 |
| 20260903213145 | 58 | 0 | 1.0 | 4.0 | 0.00 | 0.00 | 0.00 | 100 | 960.0 |
| 20260903212941 | 58 | 0 | 1.0 | 4.0 | 0.00 | 0.00 | 0.00 | 100 | 960.0 |
| 20260903212738 | 59 | 0 | 1.0 | 3.0 | 0.00 | 0.00 | 0.00 | 100 | 960.1 |
| 20260903212638 | 59 | 0 | 1.0 | 3.0 | 0.00 | 0.00 | 0.00 | 100 | 960.1 |
| 20260903212536 | 59 | 0 | 1.0 | 3.0 | 0.00 | 0.00 | 0.00 | 100 | 960.0 |
| 20260903212333 | 59 | 0 | 1.0 | 3.0 | 0.00 | 0.00 | 0.00 | 100 | 960.2 |
| 20260903212130 | 59 | 0 | 1.0 | 3.0 | 0.00 | 0.00 | 0.00 | 100 | 960.0 |
| 20260903212029 | 60 | 241 | 1.0 | 8.0 | 0.00 | 0.00 | 0.00 | 100 | 960.0 |
| 20260903211927 | 59 | 234 | 1.0 | 8.0 | 0.00 | 0.00 | 0.00 | 100 | 960.1 |
| 20260903211724 | 59 | 234 | 2.0 | 8.0 | 0.00 | 0.00 | 0.00 | 100 | 960.0 |
| 20260903211521 | 59 | 0 | 1.0 | 5.0 | 0.00 | 0.00 | 0.00 | 100 | 960.0 |
| 20260903211420 | 59 | 0 | 1.0 | 5.0 | 0.00 | 0.00 | 0.00 | 100 | 960.0 |
| 20260903211317 | 59 | 0 | 0.0 | 3.0 | 0.00 | 0.00 | 0.00 | 100 | 960.0 |
| 20260903211114 | 59 | 234 | 1.0 | 8.0 | 0.00 | 0.00 | 0.00 | 100 | 960.0 |
| 20260903210911 | 59 | 220 | 1.0 | 8.0 | 0.00 | 0.00 | 0.00 | 100 | 959.9 |
| 20260903210810 | 59 | 224 | 1.0 | 8.0 | 0.00 | 0.00 | 0.00 | 100 | 959.9 |
| 20260903210708 | 59 | 222 | 1.0 | 4.0 | 0.00 | 0.00 | 0.00 | 100 | 960.1 |
| 20260903210504 | 60 | 230 | 1.0 | 4.0 | 0.00 | 0.00 | 0.00 | 100 | 960.0 |
| 20260903210248 | 60 | 229 | 1.0 | 5.0 | 0.00 | 0.00 | 0.00 | 100 | 959.9 |
| 20260903210148 | 61 | 232 | 1.0 | 5.0 | 0.00 | 0.00 | 0.00 | 100 | 959.9 |